<?xml version="1.0" encoding="UTF-8" standalone="no" ?>
<gpx xmlns="http://www.topografix.com/GPX/1/1" xmlns:xsi="http://www.w3.org/2001/XMLSchema-instance" xsi:schemaLocation="http://www.topografix.com/GPX/1/1 http://www.topografix.com/GPX/1/1/gpx.xsd" version="1.1" creator="VisuGPX - https://www.visugpx.com">
  <metadata>
    <name>vtt_2026_28_km</name>
  </metadata>
  <trk>
    <name><![CDATA[VTT 2026 - 28 km LE dernier-23222490]]></name>
    <extensions>
      <line xmlns="http://www.topografix.com/GPX/gpx_style/0/2">
        <color>0000FF</color>
        <width>4</width>
      </line>
    </extensions>
    <trkseg>
      <trkpt lat="45.99855" lon="4.17624">
        <ele>436</ele>
        <time>2026-03-19T14:36:31Z</time>
      </trkpt>
      <trkpt lat="45.99875" lon="4.17673">
        <ele>437</ele>
        <time>2026-03-19T14:36:40Z</time>
      </trkpt>
      <trkpt lat="45.99899" lon="4.17734">
        <ele>438</ele>
        <time>2026-03-19T14:36:52Z</time>
      </trkpt>
      <trkpt lat="45.99864" lon="4.1777">
        <ele>438</ele>
        <time>2026-03-19T14:37:02Z</time>
      </trkpt>
      <trkpt lat="45.99825" lon="4.17809">
        <ele>438</ele>
        <time>2026-03-19T14:37:13Z</time>
      </trkpt>
      <trkpt lat="45.99802" lon="4.17832">
        <ele>437</ele>
        <time>2026-03-19T14:37:19Z</time>
      </trkpt>
      <trkpt lat="45.99736" lon="4.17894">
        <ele>435</ele>
        <time>2026-03-19T14:37:38Z</time>
      </trkpt>
      <trkpt lat="45.99688" lon="4.17945">
        <ele>433</ele>
        <time>2026-03-19T14:37:52Z</time>
      </trkpt>
      <trkpt lat="45.99669" lon="4.17965">
        <ele>431</ele>
        <time>2026-03-19T14:37:57Z</time>
      </trkpt>
      <trkpt lat="45.99635" lon="4.17999">
        <ele>426</ele>
        <time>2026-03-19T14:38:07Z</time>
      </trkpt>
      <trkpt lat="45.99636" lon="4.18024">
        <ele>426</ele>
        <time>2026-03-19T14:38:11Z</time>
      </trkpt>
      <trkpt lat="45.9958" lon="4.1806">
        <ele>419</ele>
        <time>2026-03-19T14:38:25Z</time>
      </trkpt>
      <trkpt lat="45.99575" lon="4.18064">
        <ele>418</ele>
        <time>2026-03-19T14:38:26Z</time>
      </trkpt>
      <trkpt lat="45.9953" lon="4.18139">
        <ele>409</ele>
        <time>2026-03-19T14:38:43Z</time>
      </trkpt>
      <trkpt lat="45.99523" lon="4.18149">
        <ele>408</ele>
        <time>2026-03-19T14:38:45Z</time>
      </trkpt>
      <trkpt lat="45.99514" lon="4.18162">
        <ele>406</ele>
        <time>2026-03-19T14:38:48Z</time>
      </trkpt>
      <trkpt lat="45.99506" lon="4.18169">
        <ele>405</ele>
        <time>2026-03-19T14:38:50Z</time>
      </trkpt>
      <trkpt lat="45.99492" lon="4.18178">
        <ele>402</ele>
        <time>2026-03-19T14:38:54Z</time>
      </trkpt>
      <trkpt lat="45.99487" lon="4.18182">
        <ele>401</ele>
        <time>2026-03-19T14:38:55Z</time>
      </trkpt>
      <trkpt lat="45.9948" lon="4.18189">
        <ele>399</ele>
        <time>2026-03-19T14:38:57Z</time>
      </trkpt>
      <trkpt lat="45.99473" lon="4.18198">
        <ele>398</ele>
        <time>2026-03-19T14:38:59Z</time>
      </trkpt>
      <trkpt lat="45.99453" lon="4.1824">
        <ele>393</ele>
        <time>2026-03-19T14:39:07Z</time>
      </trkpt>
      <trkpt lat="45.99443" lon="4.18258">
        <ele>390</ele>
        <time>2026-03-19T14:39:11Z</time>
      </trkpt>
      <trkpt lat="45.99436" lon="4.18266">
        <ele>389</ele>
        <time>2026-03-19T14:39:13Z</time>
      </trkpt>
      <trkpt lat="45.99427" lon="4.18272">
        <ele>387</ele>
        <time>2026-03-19T14:39:16Z</time>
      </trkpt>
      <trkpt lat="45.99354" lon="4.18305">
        <ele>374</ele>
        <time>2026-03-19T14:39:33Z</time>
      </trkpt>
      <trkpt lat="45.99307" lon="4.18322">
        <ele>368</ele>
        <time>2026-03-19T14:39:45Z</time>
      </trkpt>
      <trkpt lat="45.9929" lon="4.18328">
        <ele>366</ele>
        <time>2026-03-19T14:39:49Z</time>
      </trkpt>
      <trkpt lat="45.99272" lon="4.18332">
        <ele>364</ele>
        <time>2026-03-19T14:39:53Z</time>
      </trkpt>
      <trkpt lat="45.99249" lon="4.18335">
        <ele>362</ele>
        <time>2026-03-19T14:39:58Z</time>
      </trkpt>
      <trkpt lat="45.99235" lon="4.18337">
        <ele>359</ele>
        <time>2026-03-19T14:40:02Z</time>
      </trkpt>
      <trkpt lat="45.99224" lon="4.18341">
        <ele>357</ele>
        <time>2026-03-19T14:40:04Z</time>
      </trkpt>
      <trkpt lat="45.9908" lon="4.18425">
        <ele>337</ele>
        <time>2026-03-19T14:40:41Z</time>
      </trkpt>
      <trkpt lat="45.99066" lon="4.18429">
        <ele>336</ele>
        <time>2026-03-19T14:40:44Z</time>
      </trkpt>
      <trkpt lat="45.99057" lon="4.18439">
        <ele>336</ele>
        <time>2026-03-19T14:40:47Z</time>
      </trkpt>
      <trkpt lat="45.99032" lon="4.18461">
        <ele>335</ele>
        <time>2026-03-19T14:40:54Z</time>
      </trkpt>
      <trkpt lat="45.99005" lon="4.18476">
        <ele>335</ele>
        <time>2026-03-19T14:41:00Z</time>
      </trkpt>
      <trkpt lat="45.98993" lon="4.18482">
        <ele>335</ele>
        <time>2026-03-19T14:41:03Z</time>
      </trkpt>
      <trkpt lat="45.98983" lon="4.18484">
        <ele>335</ele>
        <time>2026-03-19T14:41:06Z</time>
      </trkpt>
      <trkpt lat="45.98972" lon="4.18484">
        <ele>336</ele>
        <time>2026-03-19T14:41:08Z</time>
      </trkpt>
      <trkpt lat="45.98961" lon="4.18481">
        <ele>336</ele>
        <time>2026-03-19T14:41:11Z</time>
      </trkpt>
      <trkpt lat="45.98897" lon="4.18454">
        <ele>335</ele>
        <time>2026-03-19T14:41:26Z</time>
      </trkpt>
      <trkpt lat="45.98888" lon="4.18456">
        <ele>335</ele>
        <time>2026-03-19T14:41:28Z</time>
      </trkpt>
      <trkpt lat="45.98846" lon="4.1845">
        <ele>334</ele>
        <time>2026-03-19T14:41:38Z</time>
      </trkpt>
      <trkpt lat="45.98822" lon="4.18453">
        <ele>334</ele>
        <time>2026-03-19T14:41:44Z</time>
      </trkpt>
      <trkpt lat="45.98795" lon="4.18459">
        <ele>334</ele>
        <time>2026-03-19T14:41:50Z</time>
      </trkpt>
      <trkpt lat="45.98752" lon="4.18479">
        <ele>336</ele>
        <time>2026-03-19T14:42:01Z</time>
      </trkpt>
      <trkpt lat="45.98722" lon="4.18506">
        <ele>338</ele>
        <time>2026-03-19T14:42:09Z</time>
      </trkpt>
      <trkpt lat="45.98696" lon="4.18534">
        <ele>338</ele>
        <time>2026-03-19T14:42:17Z</time>
      </trkpt>
      <trkpt lat="45.98657" lon="4.18558">
        <ele>337</ele>
        <time>2026-03-19T14:42:27Z</time>
      </trkpt>
      <trkpt lat="45.9864" lon="4.18571">
        <ele>337</ele>
        <time>2026-03-19T14:42:31Z</time>
      </trkpt>
      <trkpt lat="45.98622" lon="4.1859">
        <ele>337</ele>
        <time>2026-03-19T14:42:36Z</time>
      </trkpt>
      <trkpt lat="45.98585" lon="4.18645">
        <ele>338</ele>
        <time>2026-03-19T14:42:49Z</time>
      </trkpt>
      <trkpt lat="45.98571" lon="4.18676">
        <ele>338</ele>
        <time>2026-03-19T14:42:55Z</time>
      </trkpt>
      <trkpt lat="45.98565" lon="4.18708">
        <ele>338</ele>
        <time>2026-03-19T14:43:00Z</time>
      </trkpt>
      <trkpt lat="45.98564" lon="4.18735">
        <ele>339</ele>
        <time>2026-03-19T14:43:05Z</time>
      </trkpt>
      <trkpt lat="45.98573" lon="4.18796">
        <ele>339</ele>
        <time>2026-03-19T14:43:15Z</time>
      </trkpt>
      <trkpt lat="45.98575" lon="4.18813">
        <ele>338</ele>
        <time>2026-03-19T14:43:17Z</time>
      </trkpt>
      <trkpt lat="45.98583" lon="4.18847">
        <ele>339</ele>
        <time>2026-03-19T14:43:23Z</time>
      </trkpt>
      <trkpt lat="45.98585" lon="4.18862">
        <ele>339</ele>
        <time>2026-03-19T14:43:26Z</time>
      </trkpt>
      <trkpt lat="45.98579" lon="4.18924">
        <ele>338</ele>
        <time>2026-03-19T14:43:36Z</time>
      </trkpt>
      <trkpt lat="45.9858" lon="4.18949">
        <ele>339</ele>
        <time>2026-03-19T14:43:40Z</time>
      </trkpt>
      <trkpt lat="45.98589" lon="4.1899">
        <ele>342</ele>
        <time>2026-03-19T14:43:47Z</time>
      </trkpt>
      <trkpt lat="45.98594" lon="4.19006">
        <ele>343</ele>
        <time>2026-03-19T14:43:50Z</time>
      </trkpt>
      <trkpt lat="45.98637" lon="4.19004">
        <ele>349</ele>
        <time>2026-03-19T14:44:00Z</time>
      </trkpt>
      <trkpt lat="45.98708" lon="4.18997">
        <ele>360</ele>
        <time>2026-03-19T14:44:16Z</time>
      </trkpt>
      <trkpt lat="45.98736" lon="4.18993">
        <ele>365</ele>
        <time>2026-03-19T14:44:23Z</time>
      </trkpt>
      <trkpt lat="45.98755" lon="4.18988">
        <ele>367</ele>
        <time>2026-03-19T14:44:28Z</time>
      </trkpt>
      <trkpt lat="45.98761" lon="4.18981">
        <ele>368</ele>
        <time>2026-03-19T14:44:29Z</time>
      </trkpt>
      <trkpt lat="45.98764" lon="4.18972">
        <ele>368</ele>
        <time>2026-03-19T14:44:31Z</time>
      </trkpt>
      <trkpt lat="45.98768" lon="4.18963">
        <ele>369</ele>
        <time>2026-03-19T14:44:33Z</time>
      </trkpt>
      <trkpt lat="45.98783" lon="4.18951">
        <ele>371</ele>
        <time>2026-03-19T14:44:37Z</time>
      </trkpt>
      <trkpt lat="45.98798" lon="4.18928">
        <ele>373</ele>
        <time>2026-03-19T14:44:42Z</time>
      </trkpt>
      <trkpt lat="45.98812" lon="4.1896">
        <ele>377</ele>
        <time>2026-03-19T14:44:48Z</time>
      </trkpt>
      <trkpt lat="45.98822" lon="4.18979">
        <ele>379</ele>
        <time>2026-03-19T14:44:52Z</time>
      </trkpt>
      <trkpt lat="45.98838" lon="4.18995">
        <ele>383</ele>
        <time>2026-03-19T14:44:56Z</time>
      </trkpt>
      <trkpt lat="45.98855" lon="4.19007">
        <ele>385</ele>
        <time>2026-03-19T14:45:01Z</time>
      </trkpt>
      <trkpt lat="45.9887" lon="4.19015">
        <ele>387</ele>
        <time>2026-03-19T14:45:05Z</time>
      </trkpt>
      <trkpt lat="45.98887" lon="4.19016">
        <ele>390</ele>
        <time>2026-03-19T14:45:09Z</time>
      </trkpt>
      <trkpt lat="45.98918" lon="4.19019">
        <ele>394</ele>
        <time>2026-03-19T14:45:16Z</time>
      </trkpt>
      <trkpt lat="45.98936" lon="4.19014">
        <ele>396</ele>
        <time>2026-03-19T14:45:20Z</time>
      </trkpt>
      <trkpt lat="45.9896" lon="4.19014">
        <ele>398</ele>
        <time>2026-03-19T14:45:26Z</time>
      </trkpt>
      <trkpt lat="45.9902" lon="4.1901">
        <ele>401</ele>
        <time>2026-03-19T14:45:40Z</time>
      </trkpt>
      <trkpt lat="45.99029" lon="4.19011">
        <ele>402</ele>
        <time>2026-03-19T14:45:42Z</time>
      </trkpt>
      <trkpt lat="45.991" lon="4.19037">
        <ele>405</ele>
        <time>2026-03-19T14:45:59Z</time>
      </trkpt>
      <trkpt lat="45.99105" lon="4.19043">
        <ele>406</ele>
        <time>2026-03-19T14:46:00Z</time>
      </trkpt>
      <trkpt lat="45.99107" lon="4.1905">
        <ele>406</ele>
        <time>2026-03-19T14:46:02Z</time>
      </trkpt>
      <trkpt lat="45.99131" lon="4.19228">
        <ele>406</ele>
        <time>2026-03-19T14:46:31Z</time>
      </trkpt>
      <trkpt lat="45.99169" lon="4.19194">
        <ele>413</ele>
        <time>2026-03-19T14:46:42Z</time>
      </trkpt>
      <trkpt lat="45.99215" lon="4.19221">
        <ele>419</ele>
        <time>2026-03-19T14:46:53Z</time>
      </trkpt>
      <trkpt lat="45.99244" lon="4.19236">
        <ele>423</ele>
        <time>2026-03-19T14:47:00Z</time>
      </trkpt>
      <trkpt lat="45.99268" lon="4.19254">
        <ele>427</ele>
        <time>2026-03-19T14:47:07Z</time>
      </trkpt>
      <trkpt lat="45.99292" lon="4.19287">
        <ele>430</ele>
        <time>2026-03-19T14:47:14Z</time>
      </trkpt>
      <trkpt lat="45.99323" lon="4.19302">
        <ele>433</ele>
        <time>2026-03-19T14:47:22Z</time>
      </trkpt>
      <trkpt lat="45.99358" lon="4.19307">
        <ele>438</ele>
        <time>2026-03-19T14:47:30Z</time>
      </trkpt>
      <trkpt lat="45.99402" lon="4.19323">
        <ele>445</ele>
        <time>2026-03-19T14:47:41Z</time>
      </trkpt>
      <trkpt lat="45.99442" lon="4.19329">
        <ele>450</ele>
        <time>2026-03-19T14:47:50Z</time>
      </trkpt>
      <trkpt lat="45.99482" lon="4.19344">
        <ele>454</ele>
        <time>2026-03-19T14:48:00Z</time>
      </trkpt>
      <trkpt lat="45.99506" lon="4.19355">
        <ele>456</ele>
        <time>2026-03-19T14:48:06Z</time>
      </trkpt>
      <trkpt lat="45.99528" lon="4.19388">
        <ele>457</ele>
        <time>2026-03-19T14:48:13Z</time>
      </trkpt>
      <trkpt lat="45.99565" lon="4.19451">
        <ele>460</ele>
        <time>2026-03-19T14:48:27Z</time>
      </trkpt>
      <trkpt lat="45.99597" lon="4.19489">
        <ele>462</ele>
        <time>2026-03-19T14:48:36Z</time>
      </trkpt>
      <trkpt lat="45.99626" lon="4.19514">
        <ele>461</ele>
        <time>2026-03-19T14:48:44Z</time>
      </trkpt>
      <trkpt lat="45.99646" lon="4.19522">
        <ele>461</ele>
        <time>2026-03-19T14:48:49Z</time>
      </trkpt>
      <trkpt lat="45.99662" lon="4.19524">
        <ele>461</ele>
        <time>2026-03-19T14:48:53Z</time>
      </trkpt>
      <trkpt lat="45.99709" lon="4.19543">
        <ele>458</ele>
        <time>2026-03-19T14:49:04Z</time>
      </trkpt>
      <trkpt lat="45.99724" lon="4.1955">
        <ele>457</ele>
        <time>2026-03-19T14:49:08Z</time>
      </trkpt>
      <trkpt lat="45.99758" lon="4.19566">
        <ele>455</ele>
        <time>2026-03-19T14:49:16Z</time>
      </trkpt>
      <trkpt lat="45.99865" lon="4.196">
        <ele>455</ele>
        <time>2026-03-19T14:49:42Z</time>
      </trkpt>
      <trkpt lat="45.999" lon="4.19612">
        <ele>457</ele>
        <time>2026-03-19T14:49:50Z</time>
      </trkpt>
      <trkpt lat="45.99918" lon="4.19622">
        <ele>458</ele>
        <time>2026-03-19T14:49:55Z</time>
      </trkpt>
      <trkpt lat="45.9993" lon="4.19633">
        <ele>457</ele>
        <time>2026-03-19T14:49:58Z</time>
      </trkpt>
      <trkpt lat="45.99975" lon="4.19703">
        <ele>454</ele>
        <time>2026-03-19T14:50:13Z</time>
      </trkpt>
      <trkpt lat="45.99993" lon="4.19719">
        <ele>453</ele>
        <time>2026-03-19T14:50:18Z</time>
      </trkpt>
      <trkpt lat="46.0003" lon="4.19756">
        <ele>447</ele>
        <time>2026-03-19T14:50:29Z</time>
      </trkpt>
      <trkpt lat="46.00039" lon="4.19761">
        <ele>446</ele>
        <time>2026-03-19T14:50:31Z</time>
      </trkpt>
      <trkpt lat="46.00048" lon="4.19766">
        <ele>446</ele>
        <time>2026-03-19T14:50:33Z</time>
      </trkpt>
      <trkpt lat="46.00056" lon="4.19774">
        <ele>445</ele>
        <time>2026-03-19T14:50:36Z</time>
      </trkpt>
      <trkpt lat="46.00063" lon="4.19785">
        <ele>444</ele>
        <time>2026-03-19T14:50:38Z</time>
      </trkpt>
      <trkpt lat="46.00092" lon="4.19846">
        <ele>444</ele>
        <time>2026-03-19T14:50:50Z</time>
      </trkpt>
      <trkpt lat="46.00105" lon="4.19878">
        <ele>443</ele>
        <time>2026-03-19T14:50:56Z</time>
      </trkpt>
      <trkpt lat="46.00118" lon="4.1992">
        <ele>443</ele>
        <time>2026-03-19T14:51:04Z</time>
      </trkpt>
      <trkpt lat="46.00125" lon="4.19952">
        <ele>443</ele>
        <time>2026-03-19T14:51:09Z</time>
      </trkpt>
      <trkpt lat="46.00134" lon="4.20006">
        <ele>444</ele>
        <time>2026-03-19T14:51:18Z</time>
      </trkpt>
      <trkpt lat="46.0014" lon="4.20032">
        <ele>445</ele>
        <time>2026-03-19T14:51:23Z</time>
      </trkpt>
      <trkpt lat="46.00147" lon="4.20052">
        <ele>446</ele>
        <time>2026-03-19T14:51:26Z</time>
      </trkpt>
      <trkpt lat="46.00178" lon="4.20119">
        <ele>449</ele>
        <time>2026-03-19T14:51:39Z</time>
      </trkpt>
      <trkpt lat="46.00068" lon="4.20172">
        <ele>443</ele>
        <time>2026-03-19T14:52:06Z</time>
      </trkpt>
      <trkpt lat="46.0006" lon="4.20175">
        <ele>442</ele>
        <time>2026-03-19T14:52:08Z</time>
      </trkpt>
      <trkpt lat="46.00013" lon="4.20194">
        <ele>435</ele>
        <time>2026-03-19T14:52:20Z</time>
      </trkpt>
      <trkpt lat="45.99984" lon="4.20209">
        <ele>432</ele>
        <time>2026-03-19T14:52:27Z</time>
      </trkpt>
      <trkpt lat="46.00005" lon="4.20258">
        <ele>432</ele>
        <time>2026-03-19T14:52:36Z</time>
      </trkpt>
      <trkpt lat="46.00051" lon="4.20297">
        <ele>438</ele>
        <time>2026-03-19T14:52:49Z</time>
      </trkpt>
      <trkpt lat="46.00101" lon="4.20334">
        <ele>442</ele>
        <time>2026-03-19T14:53:02Z</time>
      </trkpt>
      <trkpt lat="46.00125" lon="4.20389">
        <ele>439</ele>
        <time>2026-03-19T14:53:12Z</time>
      </trkpt>
      <trkpt lat="46.00153" lon="4.20466">
        <ele>436</ele>
        <time>2026-03-19T14:53:26Z</time>
      </trkpt>
      <trkpt lat="46.00147" lon="4.20485">
        <ele>435</ele>
        <time>2026-03-19T14:53:30Z</time>
      </trkpt>
      <trkpt lat="46.00136" lon="4.20493">
        <ele>436</ele>
        <time>2026-03-19T14:53:33Z</time>
      </trkpt>
      <trkpt lat="46.00097" lon="4.20481">
        <ele>437</ele>
        <time>2026-03-19T14:53:42Z</time>
      </trkpt>
      <trkpt lat="46.00042" lon="4.20511">
        <ele>441</ele>
        <time>2026-03-19T14:53:56Z</time>
      </trkpt>
      <trkpt lat="46" lon="4.20557">
        <ele>445</ele>
        <time>2026-03-19T14:54:08Z</time>
      </trkpt>
      <trkpt lat="45.99971" lon="4.20574">
        <ele>445</ele>
        <time>2026-03-19T14:54:15Z</time>
      </trkpt>
      <trkpt lat="45.99908" lon="4.20577">
        <ele>443</ele>
        <time>2026-03-19T14:54:30Z</time>
      </trkpt>
      <trkpt lat="45.99906" lon="4.20577">
        <ele>443</ele>
        <time>2026-03-19T14:54:31Z</time>
      </trkpt>
      <trkpt lat="45.99889" lon="4.20563">
        <ele>442</ele>
        <time>2026-03-19T14:54:35Z</time>
      </trkpt>
      <trkpt lat="45.99882" lon="4.20559">
        <ele>442</ele>
        <time>2026-03-19T14:54:37Z</time>
      </trkpt>
      <trkpt lat="45.99831" lon="4.20542">
        <ele>440</ele>
        <time>2026-03-19T14:54:49Z</time>
      </trkpt>
      <trkpt lat="45.99822" lon="4.20442">
        <ele>434</ele>
        <time>2026-03-19T14:55:05Z</time>
      </trkpt>
      <trkpt lat="45.99821" lon="4.20415">
        <ele>433</ele>
        <time>2026-03-19T14:55:10Z</time>
      </trkpt>
      <trkpt lat="45.99822" lon="4.20407">
        <ele>432</ele>
        <time>2026-03-19T14:55:11Z</time>
      </trkpt>
      <trkpt lat="45.99827" lon="4.20404">
        <ele>432</ele>
        <time>2026-03-19T14:55:12Z</time>
      </trkpt>
      <trkpt lat="45.99868" lon="4.20409">
        <ele>433</ele>
        <time>2026-03-19T14:55:22Z</time>
      </trkpt>
      <trkpt lat="45.99875" lon="4.20408">
        <ele>433</ele>
        <time>2026-03-19T14:55:24Z</time>
      </trkpt>
      <trkpt lat="45.99876" lon="4.20404">
        <ele>432</ele>
        <time>2026-03-19T14:55:24Z</time>
      </trkpt>
      <trkpt lat="45.99871" lon="4.20384">
        <ele>430</ele>
        <time>2026-03-19T14:55:28Z</time>
      </trkpt>
      <trkpt lat="45.99844" lon="4.20297">
        <ele>424</ele>
        <time>2026-03-19T14:55:43Z</time>
      </trkpt>
      <trkpt lat="45.99838" lon="4.20287">
        <ele>423</ele>
        <time>2026-03-19T14:55:45Z</time>
      </trkpt>
      <trkpt lat="45.99818" lon="4.20269">
        <ele>422</ele>
        <time>2026-03-19T14:55:51Z</time>
      </trkpt>
      <trkpt lat="45.99765" lon="4.20238">
        <ele>420</ele>
        <time>2026-03-19T14:56:04Z</time>
      </trkpt>
      <trkpt lat="45.99743" lon="4.20219">
        <ele>419</ele>
        <time>2026-03-19T14:56:10Z</time>
      </trkpt>
      <trkpt lat="45.99722" lon="4.202">
        <ele>417</ele>
        <time>2026-03-19T14:56:16Z</time>
      </trkpt>
      <trkpt lat="45.99663" lon="4.20162">
        <ele>412</ele>
        <time>2026-03-19T14:56:31Z</time>
      </trkpt>
      <trkpt lat="45.99603" lon="4.20138">
        <ele>408</ele>
        <time>2026-03-19T14:56:46Z</time>
      </trkpt>
      <trkpt lat="45.99632" lon="4.20095">
        <ele>408</ele>
        <time>2026-03-19T14:56:55Z</time>
      </trkpt>
      <trkpt lat="45.99548" lon="4.20068">
        <ele>399</ele>
        <time>2026-03-19T14:57:16Z</time>
      </trkpt>
      <trkpt lat="45.9948" lon="4.20033">
        <ele>393</ele>
        <time>2026-03-19T14:57:32Z</time>
      </trkpt>
      <trkpt lat="45.9944" lon="4.19985">
        <ele>390</ele>
        <time>2026-03-19T14:57:45Z</time>
      </trkpt>
      <trkpt lat="45.99457" lon="4.19949">
        <ele>400</ele>
        <time>2026-03-19T14:57:52Z</time>
      </trkpt>
      <trkpt lat="45.99491" lon="4.19881">
        <ele>422</ele>
        <time>2026-03-19T14:58:05Z</time>
      </trkpt>
      <trkpt lat="45.9945" lon="4.19822">
        <ele>426</ele>
        <time>2026-03-19T14:58:19Z</time>
      </trkpt>
      <trkpt lat="45.99354" lon="4.19749">
        <ele>423</ele>
        <time>2026-03-19T14:58:44Z</time>
      </trkpt>
      <trkpt lat="45.99323" lon="4.19752">
        <ele>418</ele>
        <time>2026-03-19T14:58:51Z</time>
      </trkpt>
      <trkpt lat="45.99308" lon="4.19732">
        <ele>418</ele>
        <time>2026-03-19T14:58:56Z</time>
      </trkpt>
      <trkpt lat="45.99239" lon="4.19632">
        <ele>419</ele>
        <time>2026-03-19T14:59:19Z</time>
      </trkpt>
      <trkpt lat="45.99181" lon="4.19617">
        <ele>409</ele>
        <time>2026-03-19T14:59:33Z</time>
      </trkpt>
      <trkpt lat="45.99133" lon="4.19608">
        <ele>401</ele>
        <time>2026-03-19T14:59:44Z</time>
      </trkpt>
      <trkpt lat="45.9902" lon="4.19669">
        <ele>380</ele>
        <time>2026-03-19T15:00:12Z</time>
      </trkpt>
      <trkpt lat="45.99033" lon="4.19496">
        <ele>388</ele>
        <time>2026-03-19T15:00:40Z</time>
      </trkpt>
      <trkpt lat="45.99061" lon="4.19393">
        <ele>394</ele>
        <time>2026-03-19T15:00:58Z</time>
      </trkpt>
      <trkpt lat="45.98965" lon="4.19363">
        <ele>378</ele>
        <time>2026-03-19T15:01:21Z</time>
      </trkpt>
      <trkpt lat="45.98961" lon="4.19358">
        <ele>378</ele>
        <time>2026-03-19T15:01:23Z</time>
      </trkpt>
      <trkpt lat="45.98947" lon="4.19321">
        <ele>375</ele>
        <time>2026-03-19T15:01:29Z</time>
      </trkpt>
      <trkpt lat="45.98936" lon="4.19301">
        <ele>374</ele>
        <time>2026-03-19T15:01:34Z</time>
      </trkpt>
      <trkpt lat="45.98921" lon="4.19282">
        <ele>372</ele>
        <time>2026-03-19T15:01:38Z</time>
      </trkpt>
      <trkpt lat="45.98855" lon="4.19238">
        <ele>368</ele>
        <time>2026-03-19T15:01:55Z</time>
      </trkpt>
      <trkpt lat="45.98785" lon="4.19121">
        <ele>368</ele>
        <time>2026-03-19T15:02:20Z</time>
      </trkpt>
      <trkpt lat="45.98757" lon="4.19074">
        <ele>365</ele>
        <time>2026-03-19T15:02:30Z</time>
      </trkpt>
      <trkpt lat="45.98736" lon="4.18993">
        <ele>365</ele>
        <time>2026-03-19T15:02:44Z</time>
      </trkpt>
      <trkpt lat="45.98708" lon="4.18997">
        <ele>360</ele>
        <time>2026-03-19T15:02:51Z</time>
      </trkpt>
      <trkpt lat="45.98637" lon="4.19004">
        <ele>349</ele>
        <time>2026-03-19T15:03:08Z</time>
      </trkpt>
      <trkpt lat="45.98594" lon="4.19006">
        <ele>343</ele>
        <time>2026-03-19T15:03:18Z</time>
      </trkpt>
      <trkpt lat="45.98599" lon="4.19064">
        <ele>343</ele>
        <time>2026-03-19T15:03:27Z</time>
      </trkpt>
      <trkpt lat="45.98602" lon="4.19129">
        <ele>345</ele>
        <time>2026-03-19T15:03:38Z</time>
      </trkpt>
      <trkpt lat="45.98601" lon="4.19147">
        <ele>345</ele>
        <time>2026-03-19T15:03:41Z</time>
      </trkpt>
      <trkpt lat="45.98588" lon="4.19228">
        <ele>345</ele>
        <time>2026-03-19T15:03:54Z</time>
      </trkpt>
      <trkpt lat="45.9858" lon="4.1937">
        <ele>342</ele>
        <time>2026-03-19T15:04:17Z</time>
      </trkpt>
      <trkpt lat="45.9858" lon="4.19416">
        <ele>338</ele>
        <time>2026-03-19T15:04:25Z</time>
      </trkpt>
      <trkpt lat="45.98585" lon="4.1945">
        <ele>337</ele>
        <time>2026-03-19T15:04:30Z</time>
      </trkpt>
      <trkpt lat="45.986" lon="4.19526">
        <ele>333</ele>
        <time>2026-03-19T15:04:43Z</time>
      </trkpt>
      <trkpt lat="45.98596" lon="4.1953">
        <ele>332</ele>
        <time>2026-03-19T15:04:44Z</time>
      </trkpt>
      <trkpt lat="45.98585" lon="4.19538">
        <ele>331</ele>
        <time>2026-03-19T15:04:47Z</time>
      </trkpt>
      <trkpt lat="45.9857" lon="4.19544">
        <ele>329</ele>
        <time>2026-03-19T15:04:51Z</time>
      </trkpt>
      <trkpt lat="45.98568" lon="4.19511">
        <ele>330</ele>
        <time>2026-03-19T15:04:56Z</time>
      </trkpt>
      <trkpt lat="45.98565" lon="4.19483">
        <ele>331</ele>
        <time>2026-03-19T15:05:01Z</time>
      </trkpt>
      <trkpt lat="45.98551" lon="4.1939">
        <ele>335</ele>
        <time>2026-03-19T15:05:16Z</time>
      </trkpt>
      <trkpt lat="45.98546" lon="4.1939">
        <ele>334</ele>
        <time>2026-03-19T15:05:17Z</time>
      </trkpt>
      <trkpt lat="45.98542" lon="4.19389">
        <ele>334</ele>
        <time>2026-03-19T15:05:18Z</time>
      </trkpt>
      <trkpt lat="45.98534" lon="4.19381">
        <ele>333</ele>
        <time>2026-03-19T15:05:21Z</time>
      </trkpt>
      <trkpt lat="45.98511" lon="4.19362">
        <ele>332</ele>
        <time>2026-03-19T15:05:27Z</time>
      </trkpt>
      <trkpt lat="45.98469" lon="4.19337">
        <ele>330</ele>
        <time>2026-03-19T15:05:37Z</time>
      </trkpt>
      <trkpt lat="45.9846" lon="4.19329">
        <ele>330</ele>
        <time>2026-03-19T15:05:40Z</time>
      </trkpt>
      <trkpt lat="45.98452" lon="4.19325">
        <ele>329</ele>
        <time>2026-03-19T15:05:42Z</time>
      </trkpt>
      <trkpt lat="45.98421" lon="4.19321">
        <ele>325</ele>
        <time>2026-03-19T15:05:49Z</time>
      </trkpt>
      <trkpt lat="45.98398" lon="4.19322">
        <ele>322</ele>
        <time>2026-03-19T15:05:54Z</time>
      </trkpt>
      <trkpt lat="45.98395" lon="4.19324">
        <ele>322</ele>
        <time>2026-03-19T15:05:55Z</time>
      </trkpt>
      <trkpt lat="45.98393" lon="4.19327">
        <ele>321</ele>
        <time>2026-03-19T15:05:56Z</time>
      </trkpt>
      <trkpt lat="45.9839" lon="4.19335">
        <ele>321</ele>
        <time>2026-03-19T15:05:57Z</time>
      </trkpt>
      <trkpt lat="45.98387" lon="4.19348">
        <ele>320</ele>
        <time>2026-03-19T15:06:00Z</time>
      </trkpt>
      <trkpt lat="45.98381" lon="4.19375">
        <ele>318</ele>
        <time>2026-03-19T15:06:04Z</time>
      </trkpt>
      <trkpt lat="45.98381" lon="4.19419">
        <ele>316</ele>
        <time>2026-03-19T15:06:11Z</time>
      </trkpt>
      <trkpt lat="45.98384" lon="4.19441">
        <ele>315</ele>
        <time>2026-03-19T15:06:15Z</time>
      </trkpt>
      <trkpt lat="45.98393" lon="4.19482">
        <ele>315</ele>
        <time>2026-03-19T15:06:22Z</time>
      </trkpt>
      <trkpt lat="45.98394" lon="4.19512">
        <ele>315</ele>
        <time>2026-03-19T15:06:27Z</time>
      </trkpt>
      <trkpt lat="45.98374" lon="4.19582">
        <ele>316</ele>
        <time>2026-03-19T15:06:39Z</time>
      </trkpt>
      <trkpt lat="45.98361" lon="4.19616">
        <ele>317</ele>
        <time>2026-03-19T15:06:45Z</time>
      </trkpt>
      <trkpt lat="45.98347" lon="4.19632">
        <ele>317</ele>
        <time>2026-03-19T15:06:50Z</time>
      </trkpt>
      <trkpt lat="45.9828" lon="4.19683">
        <ele>321</ele>
        <time>2026-03-19T15:07:07Z</time>
      </trkpt>
      <trkpt lat="45.98278" lon="4.19694">
        <ele>321</ele>
        <time>2026-03-19T15:07:09Z</time>
      </trkpt>
      <trkpt lat="45.98223" lon="4.19829">
        <ele>324</ele>
        <time>2026-03-19T15:07:35Z</time>
      </trkpt>
      <trkpt lat="45.98208" lon="4.19869">
        <ele>324</ele>
        <time>2026-03-19T15:07:42Z</time>
      </trkpt>
      <trkpt lat="45.98198" lon="4.19924">
        <ele>322</ele>
        <time>2026-03-19T15:07:51Z</time>
      </trkpt>
      <trkpt lat="45.98193" lon="4.19931">
        <ele>323</ele>
        <time>2026-03-19T15:07:53Z</time>
      </trkpt>
      <trkpt lat="45.98176" lon="4.19952">
        <ele>324</ele>
        <time>2026-03-19T15:07:58Z</time>
      </trkpt>
      <trkpt lat="45.98177" lon="4.19964">
        <ele>324</ele>
        <time>2026-03-19T15:08:00Z</time>
      </trkpt>
      <trkpt lat="45.98181" lon="4.19976">
        <ele>323</ele>
        <time>2026-03-19T15:08:02Z</time>
      </trkpt>
      <trkpt lat="45.98192" lon="4.19997">
        <ele>322</ele>
        <time>2026-03-19T15:08:06Z</time>
      </trkpt>
      <trkpt lat="45.98213" lon="4.20031">
        <ele>321</ele>
        <time>2026-03-19T15:08:14Z</time>
      </trkpt>
      <trkpt lat="45.98218" lon="4.20044">
        <ele>321</ele>
        <time>2026-03-19T15:08:16Z</time>
      </trkpt>
      <trkpt lat="45.98222" lon="4.2007">
        <ele>322</ele>
        <time>2026-03-19T15:08:20Z</time>
      </trkpt>
      <trkpt lat="45.98227" lon="4.20089">
        <ele>322</ele>
        <time>2026-03-19T15:08:24Z</time>
      </trkpt>
      <trkpt lat="45.98236" lon="4.2011">
        <ele>322</ele>
        <time>2026-03-19T15:08:28Z</time>
      </trkpt>
      <trkpt lat="45.98251" lon="4.2013">
        <ele>320</ele>
        <time>2026-03-19T15:08:33Z</time>
      </trkpt>
      <trkpt lat="45.98304" lon="4.20195">
        <ele>323</ele>
        <time>2026-03-19T15:08:49Z</time>
      </trkpt>
      <trkpt lat="45.98438" lon="4.20317">
        <ele>322</ele>
        <time>2026-03-19T15:09:26Z</time>
      </trkpt>
      <trkpt lat="45.98495" lon="4.20374">
        <ele>321</ele>
        <time>2026-03-19T15:09:42Z</time>
      </trkpt>
      <trkpt lat="45.9853" lon="4.20406">
        <ele>321</ele>
        <time>2026-03-19T15:09:52Z</time>
      </trkpt>
      <trkpt lat="45.98581" lon="4.20465">
        <ele>320</ele>
        <time>2026-03-19T15:10:07Z</time>
      </trkpt>
      <trkpt lat="45.98611" lon="4.20523">
        <ele>323</ele>
        <time>2026-03-19T15:10:19Z</time>
      </trkpt>
      <trkpt lat="45.98626" lon="4.20551">
        <ele>323</ele>
        <time>2026-03-19T15:10:24Z</time>
      </trkpt>
      <trkpt lat="45.98657" lon="4.20593">
        <ele>323</ele>
        <time>2026-03-19T15:10:34Z</time>
      </trkpt>
      <trkpt lat="45.98664" lon="4.20611">
        <ele>324</ele>
        <time>2026-03-19T15:10:38Z</time>
      </trkpt>
      <trkpt lat="45.9867" lon="4.20633">
        <ele>325</ele>
        <time>2026-03-19T15:10:42Z</time>
      </trkpt>
      <trkpt lat="45.98675" lon="4.20662">
        <ele>326</ele>
        <time>2026-03-19T15:10:46Z</time>
      </trkpt>
      <trkpt lat="45.98677" lon="4.20681">
        <ele>326</ele>
        <time>2026-03-19T15:10:50Z</time>
      </trkpt>
      <trkpt lat="45.98666" lon="4.20703">
        <ele>326</ele>
        <time>2026-03-19T15:10:54Z</time>
      </trkpt>
      <trkpt lat="45.98657" lon="4.20722">
        <ele>327</ele>
        <time>2026-03-19T15:10:58Z</time>
      </trkpt>
      <trkpt lat="45.9865" lon="4.2073">
        <ele>329</ele>
        <time>2026-03-19T15:11:00Z</time>
      </trkpt>
      <trkpt lat="45.98641" lon="4.20732">
        <ele>330</ele>
        <time>2026-03-19T15:11:02Z</time>
      </trkpt>
      <trkpt lat="45.98631" lon="4.20729">
        <ele>332</ele>
        <time>2026-03-19T15:11:04Z</time>
      </trkpt>
      <trkpt lat="45.98617" lon="4.20721">
        <ele>334</ele>
        <time>2026-03-19T15:11:08Z</time>
      </trkpt>
      <trkpt lat="45.98568" lon="4.20668">
        <ele>338</ele>
        <time>2026-03-19T15:11:22Z</time>
      </trkpt>
      <trkpt lat="45.98541" lon="4.20648">
        <ele>339</ele>
        <time>2026-03-19T15:11:29Z</time>
      </trkpt>
      <trkpt lat="45.98517" lon="4.20633">
        <ele>340</ele>
        <time>2026-03-19T15:11:35Z</time>
      </trkpt>
      <trkpt lat="45.98484" lon="4.20616">
        <ele>342</ele>
        <time>2026-03-19T15:11:44Z</time>
      </trkpt>
      <trkpt lat="45.98477" lon="4.20611">
        <ele>342</ele>
        <time>2026-03-19T15:11:45Z</time>
      </trkpt>
      <trkpt lat="45.98457" lon="4.20595">
        <ele>342</ele>
        <time>2026-03-19T15:11:51Z</time>
      </trkpt>
      <trkpt lat="45.98428" lon="4.20554">
        <ele>341</ele>
        <time>2026-03-19T15:12:00Z</time>
      </trkpt>
      <trkpt lat="45.98384" lon="4.20486">
        <ele>342</ele>
        <time>2026-03-19T15:12:15Z</time>
      </trkpt>
      <trkpt lat="45.98372" lon="4.2047">
        <ele>343</ele>
        <time>2026-03-19T15:12:19Z</time>
      </trkpt>
      <trkpt lat="45.98346" lon="4.20453">
        <ele>347</ele>
        <time>2026-03-19T15:12:26Z</time>
      </trkpt>
      <trkpt lat="45.98342" lon="4.20452">
        <ele>348</ele>
        <time>2026-03-19T15:12:27Z</time>
      </trkpt>
      <trkpt lat="45.98318" lon="4.20444">
        <ele>349</ele>
        <time>2026-03-19T15:12:32Z</time>
      </trkpt>
      <trkpt lat="45.98299" lon="4.2044">
        <ele>348</ele>
        <time>2026-03-19T15:12:37Z</time>
      </trkpt>
      <trkpt lat="45.98263" lon="4.20451">
        <ele>348</ele>
        <time>2026-03-19T15:12:46Z</time>
      </trkpt>
      <trkpt lat="45.98246" lon="4.20464">
        <ele>349</ele>
        <time>2026-03-19T15:12:50Z</time>
      </trkpt>
      <trkpt lat="45.98224" lon="4.20492">
        <ele>351</ele>
        <time>2026-03-19T15:12:57Z</time>
      </trkpt>
      <trkpt lat="45.98214" lon="4.20498">
        <ele>351</ele>
        <time>2026-03-19T15:12:59Z</time>
      </trkpt>
      <trkpt lat="45.98158" lon="4.20504">
        <ele>353</ele>
        <time>2026-03-19T15:13:13Z</time>
      </trkpt>
      <trkpt lat="45.98122" lon="4.20535">
        <ele>359</ele>
        <time>2026-03-19T15:13:22Z</time>
      </trkpt>
      <trkpt lat="45.98085" lon="4.2054">
        <ele>360</ele>
        <time>2026-03-19T15:13:31Z</time>
      </trkpt>
      <trkpt lat="45.98079" lon="4.20525">
        <ele>361</ele>
        <time>2026-03-19T15:13:34Z</time>
      </trkpt>
      <trkpt lat="45.98079" lon="4.20497">
        <ele>361</ele>
        <time>2026-03-19T15:13:38Z</time>
      </trkpt>
      <trkpt lat="45.98079" lon="4.2036">
        <ele>368</ele>
        <time>2026-03-19T15:14:01Z</time>
      </trkpt>
      <trkpt lat="45.98099" lon="4.20286">
        <ele>369</ele>
        <time>2026-03-19T15:14:13Z</time>
      </trkpt>
      <trkpt lat="45.98086" lon="4.20191">
        <ele>368</ele>
        <time>2026-03-19T15:14:29Z</time>
      </trkpt>
      <trkpt lat="45.98041" lon="4.20129">
        <ele>366</ele>
        <time>2026-03-19T15:14:44Z</time>
      </trkpt>
      <trkpt lat="45.97888" lon="4.20087">
        <ele>378</ele>
        <time>2026-03-19T15:15:20Z</time>
      </trkpt>
      <trkpt lat="45.97704" lon="4.19991">
        <ele>381</ele>
        <time>2026-03-19T15:16:06Z</time>
      </trkpt>
      <trkpt lat="45.97649" lon="4.19999">
        <ele>384</ele>
        <time>2026-03-19T15:16:19Z</time>
      </trkpt>
      <trkpt lat="45.97626" lon="4.20016">
        <ele>387</ele>
        <time>2026-03-19T15:16:25Z</time>
      </trkpt>
      <trkpt lat="45.97584" lon="4.20051">
        <ele>391</ele>
        <time>2026-03-19T15:16:36Z</time>
      </trkpt>
      <trkpt lat="45.97492" lon="4.201">
        <ele>397</ele>
        <time>2026-03-19T15:16:59Z</time>
      </trkpt>
      <trkpt lat="45.9742" lon="4.20075">
        <ele>397</ele>
        <time>2026-03-19T15:17:16Z</time>
      </trkpt>
      <trkpt lat="45.97342" lon="4.19999">
        <ele>398</ele>
        <time>2026-03-19T15:17:38Z</time>
      </trkpt>
      <trkpt lat="45.97314" lon="4.19987">
        <ele>398</ele>
        <time>2026-03-19T15:17:45Z</time>
      </trkpt>
      <trkpt lat="45.97291" lon="4.19902">
        <ele>399</ele>
        <time>2026-03-19T15:18:00Z</time>
      </trkpt>
      <trkpt lat="45.9728" lon="4.19855">
        <ele>400</ele>
        <time>2026-03-19T15:18:08Z</time>
      </trkpt>
      <trkpt lat="45.97276" lon="4.19817">
        <ele>400</ele>
        <time>2026-03-19T15:18:14Z</time>
      </trkpt>
      <trkpt lat="45.97277" lon="4.1979">
        <ele>400</ele>
        <time>2026-03-19T15:18:19Z</time>
      </trkpt>
      <trkpt lat="45.97284" lon="4.19775">
        <ele>400</ele>
        <time>2026-03-19T15:18:22Z</time>
      </trkpt>
      <trkpt lat="45.97301" lon="4.19741">
        <ele>401</ele>
        <time>2026-03-19T15:18:28Z</time>
      </trkpt>
      <trkpt lat="45.97331" lon="4.19677">
        <ele>404</ele>
        <time>2026-03-19T15:18:41Z</time>
      </trkpt>
      <trkpt lat="45.97348" lon="4.19622">
        <ele>405</ele>
        <time>2026-03-19T15:18:51Z</time>
      </trkpt>
      <trkpt lat="45.97356" lon="4.19586">
        <ele>406</ele>
        <time>2026-03-19T15:18:57Z</time>
      </trkpt>
      <trkpt lat="45.97355" lon="4.1956">
        <ele>406</ele>
        <time>2026-03-19T15:19:01Z</time>
      </trkpt>
      <trkpt lat="45.97352" lon="4.19544">
        <ele>407</ele>
        <time>2026-03-19T15:19:04Z</time>
      </trkpt>
      <trkpt lat="45.97342" lon="4.19521">
        <ele>407</ele>
        <time>2026-03-19T15:19:08Z</time>
      </trkpt>
      <trkpt lat="45.97325" lon="4.19498">
        <ele>408</ele>
        <time>2026-03-19T15:19:14Z</time>
      </trkpt>
      <trkpt lat="45.97309" lon="4.19477">
        <ele>408</ele>
        <time>2026-03-19T15:19:19Z</time>
      </trkpt>
      <trkpt lat="45.97287" lon="4.1946">
        <ele>409</ele>
        <time>2026-03-19T15:19:24Z</time>
      </trkpt>
      <trkpt lat="45.97271" lon="4.19446">
        <ele>410</ele>
        <time>2026-03-19T15:19:29Z</time>
      </trkpt>
      <trkpt lat="45.97238" lon="4.19406">
        <ele>412</ele>
        <time>2026-03-19T15:19:39Z</time>
      </trkpt>
      <trkpt lat="45.97226" lon="4.19387">
        <ele>411</ele>
        <time>2026-03-19T15:19:43Z</time>
      </trkpt>
      <trkpt lat="45.97223" lon="4.1936">
        <ele>411</ele>
        <time>2026-03-19T15:19:47Z</time>
      </trkpt>
      <trkpt lat="45.97182" lon="4.19338">
        <ele>412</ele>
        <time>2026-03-19T15:19:58Z</time>
      </trkpt>
      <trkpt lat="45.97128" lon="4.19297">
        <ele>413</ele>
        <time>2026-03-19T15:20:12Z</time>
      </trkpt>
      <trkpt lat="45.97031" lon="4.19243">
        <ele>413</ele>
        <time>2026-03-19T15:20:36Z</time>
      </trkpt>
      <trkpt lat="45.97021" lon="4.19243">
        <ele>413</ele>
        <time>2026-03-19T15:20:39Z</time>
      </trkpt>
      <trkpt lat="45.97008" lon="4.19246">
        <ele>414</ele>
        <time>2026-03-19T15:20:42Z</time>
      </trkpt>
      <trkpt lat="45.96986" lon="4.19253">
        <ele>414</ele>
        <time>2026-03-19T15:20:47Z</time>
      </trkpt>
      <trkpt lat="45.96972" lon="4.19256">
        <ele>413</ele>
        <time>2026-03-19T15:20:50Z</time>
      </trkpt>
      <trkpt lat="45.96963" lon="4.19255">
        <ele>413</ele>
        <time>2026-03-19T15:20:52Z</time>
      </trkpt>
      <trkpt lat="45.96951" lon="4.19249">
        <ele>413</ele>
        <time>2026-03-19T15:20:55Z</time>
      </trkpt>
      <trkpt lat="45.96931" lon="4.19231">
        <ele>413</ele>
        <time>2026-03-19T15:21:01Z</time>
      </trkpt>
      <trkpt lat="45.96916" lon="4.19221">
        <ele>413</ele>
        <time>2026-03-19T15:21:05Z</time>
      </trkpt>
      <trkpt lat="45.96861" lon="4.19176">
        <ele>412</ele>
        <time>2026-03-19T15:21:19Z</time>
      </trkpt>
      <trkpt lat="45.96853" lon="4.19171">
        <ele>412</ele>
        <time>2026-03-19T15:21:22Z</time>
      </trkpt>
      <trkpt lat="45.96832" lon="4.19167">
        <ele>412</ele>
        <time>2026-03-19T15:21:26Z</time>
      </trkpt>
      <trkpt lat="45.96815" lon="4.1916">
        <ele>410</ele>
        <time>2026-03-19T15:21:31Z</time>
      </trkpt>
      <trkpt lat="45.96792" lon="4.1916">
        <ele>409</ele>
        <time>2026-03-19T15:21:36Z</time>
      </trkpt>
      <trkpt lat="45.96761" lon="4.19157">
        <ele>407</ele>
        <time>2026-03-19T15:21:43Z</time>
      </trkpt>
      <trkpt lat="45.9665" lon="4.19204">
        <ele>393</ele>
        <time>2026-03-19T15:22:10Z</time>
      </trkpt>
      <trkpt lat="45.96524" lon="4.1926">
        <ele>376</ele>
        <time>2026-03-19T15:22:41Z</time>
      </trkpt>
      <trkpt lat="45.96464" lon="4.19254">
        <ele>372</ele>
        <time>2026-03-19T15:22:55Z</time>
      </trkpt>
      <trkpt lat="45.96424" lon="4.19257">
        <ele>368</ele>
        <time>2026-03-19T15:23:04Z</time>
      </trkpt>
      <trkpt lat="45.96337" lon="4.19319">
        <ele>354</ele>
        <time>2026-03-19T15:23:27Z</time>
      </trkpt>
      <trkpt lat="45.96331" lon="4.19308">
        <ele>354</ele>
        <time>2026-03-19T15:23:29Z</time>
      </trkpt>
      <trkpt lat="45.96313" lon="4.19318">
        <ele>351</ele>
        <time>2026-03-19T15:23:34Z</time>
      </trkpt>
      <trkpt lat="45.96261" lon="4.19324">
        <ele>342</ele>
        <time>2026-03-19T15:23:46Z</time>
      </trkpt>
      <trkpt lat="45.96259" lon="4.19342">
        <ele>342</ele>
        <time>2026-03-19T15:23:49Z</time>
      </trkpt>
      <trkpt lat="45.96213" lon="4.19352">
        <ele>341</ele>
        <time>2026-03-19T15:24:00Z</time>
      </trkpt>
      <trkpt lat="45.9617" lon="4.19353">
        <ele>342</ele>
        <time>2026-03-19T15:24:10Z</time>
      </trkpt>
      <trkpt lat="45.96166" lon="4.1937">
        <ele>344</ele>
        <time>2026-03-19T15:24:13Z</time>
      </trkpt>
      <trkpt lat="45.96152" lon="4.19372">
        <ele>346</ele>
        <time>2026-03-19T15:24:16Z</time>
      </trkpt>
      <trkpt lat="45.96149" lon="4.19347">
        <ele>343</ele>
        <time>2026-03-19T15:24:20Z</time>
      </trkpt>
      <trkpt lat="45.96133" lon="4.19329">
        <ele>342</ele>
        <time>2026-03-19T15:24:25Z</time>
      </trkpt>
      <trkpt lat="45.96115" lon="4.19349">
        <ele>347</ele>
        <time>2026-03-19T15:24:30Z</time>
      </trkpt>
      <trkpt lat="45.96103" lon="4.19334">
        <ele>345</ele>
        <time>2026-03-19T15:24:34Z</time>
      </trkpt>
      <trkpt lat="45.9613" lon="4.19192">
        <ele>350</ele>
        <time>2026-03-19T15:24:58Z</time>
      </trkpt>
      <trkpt lat="45.96125" lon="4.1916">
        <ele>354</ele>
        <time>2026-03-19T15:25:03Z</time>
      </trkpt>
      <trkpt lat="45.96114" lon="4.19129">
        <ele>356</ele>
        <time>2026-03-19T15:25:09Z</time>
      </trkpt>
      <trkpt lat="45.96083" lon="4.19072">
        <ele>363</ele>
        <time>2026-03-19T15:25:21Z</time>
      </trkpt>
      <trkpt lat="45.96065" lon="4.19008">
        <ele>368</ele>
        <time>2026-03-19T15:25:32Z</time>
      </trkpt>
      <trkpt lat="45.9609" lon="4.18816">
        <ele>380</ele>
        <time>2026-03-19T15:26:04Z</time>
      </trkpt>
      <trkpt lat="45.96177" lon="4.18629">
        <ele>382</ele>
        <time>2026-03-19T15:26:40Z</time>
      </trkpt>
      <trkpt lat="45.96265" lon="4.18569">
        <ele>381</ele>
        <time>2026-03-19T15:27:03Z</time>
      </trkpt>
      <trkpt lat="45.96261" lon="4.18489">
        <ele>383</ele>
        <time>2026-03-19T15:27:16Z</time>
      </trkpt>
      <trkpt lat="45.96255" lon="4.18466">
        <ele>384</ele>
        <time>2026-03-19T15:27:20Z</time>
      </trkpt>
      <trkpt lat="45.96254" lon="4.18461">
        <ele>384</ele>
        <time>2026-03-19T15:27:21Z</time>
      </trkpt>
      <trkpt lat="45.9625" lon="4.18453">
        <ele>384</ele>
        <time>2026-03-19T15:27:22Z</time>
      </trkpt>
      <trkpt lat="45.96241" lon="4.18444">
        <ele>384</ele>
        <time>2026-03-19T15:27:25Z</time>
      </trkpt>
      <trkpt lat="45.96182" lon="4.18401">
        <ele>389</ele>
        <time>2026-03-19T15:27:40Z</time>
      </trkpt>
      <trkpt lat="45.96148" lon="4.18381">
        <ele>391</ele>
        <time>2026-03-19T15:27:49Z</time>
      </trkpt>
      <trkpt lat="45.96138" lon="4.18373">
        <ele>391</ele>
        <time>2026-03-19T15:27:52Z</time>
      </trkpt>
      <trkpt lat="45.96132" lon="4.18363">
        <ele>392</ele>
        <time>2026-03-19T15:27:54Z</time>
      </trkpt>
      <trkpt lat="45.96125" lon="4.18328">
        <ele>392</ele>
        <time>2026-03-19T15:28:00Z</time>
      </trkpt>
      <trkpt lat="45.96139" lon="4.18319">
        <ele>391</ele>
        <time>2026-03-19T15:28:03Z</time>
      </trkpt>
      <trkpt lat="45.96181" lon="4.18298">
        <ele>391</ele>
        <time>2026-03-19T15:28:14Z</time>
      </trkpt>
      <trkpt lat="45.96198" lon="4.18288">
        <ele>390</ele>
        <time>2026-03-19T15:28:18Z</time>
      </trkpt>
      <trkpt lat="45.9622" lon="4.18269">
        <ele>390</ele>
        <time>2026-03-19T15:28:24Z</time>
      </trkpt>
      <trkpt lat="45.96228" lon="4.1826">
        <ele>390</ele>
        <time>2026-03-19T15:28:26Z</time>
      </trkpt>
      <trkpt lat="45.96256" lon="4.18232">
        <ele>391</ele>
        <time>2026-03-19T15:28:34Z</time>
      </trkpt>
      <trkpt lat="45.96278" lon="4.182">
        <ele>392</ele>
        <time>2026-03-19T15:28:41Z</time>
      </trkpt>
      <trkpt lat="45.96298" lon="4.18179">
        <ele>393</ele>
        <time>2026-03-19T15:28:47Z</time>
      </trkpt>
      <trkpt lat="45.96309" lon="4.18143">
        <ele>393</ele>
        <time>2026-03-19T15:28:54Z</time>
      </trkpt>
      <trkpt lat="45.96271" lon="4.18131">
        <ele>394</ele>
        <time>2026-03-19T15:29:03Z</time>
      </trkpt>
      <trkpt lat="45.96264" lon="4.18117">
        <ele>395</ele>
        <time>2026-03-19T15:29:06Z</time>
      </trkpt>
      <trkpt lat="45.96256" lon="4.1807">
        <ele>396</ele>
        <time>2026-03-19T15:29:13Z</time>
      </trkpt>
      <trkpt lat="45.9631" lon="4.18082">
        <ele>393</ele>
        <time>2026-03-19T15:29:26Z</time>
      </trkpt>
      <trkpt lat="45.96323" lon="4.18074">
        <ele>392</ele>
        <time>2026-03-19T15:29:29Z</time>
      </trkpt>
      <trkpt lat="45.96331" lon="4.1805">
        <ele>391</ele>
        <time>2026-03-19T15:29:34Z</time>
      </trkpt>
      <trkpt lat="45.96328" lon="4.18026">
        <ele>390</ele>
        <time>2026-03-19T15:29:38Z</time>
      </trkpt>
      <trkpt lat="45.96308" lon="4.17888">
        <ele>387</ele>
        <time>2026-03-19T15:30:01Z</time>
      </trkpt>
      <trkpt lat="45.96275" lon="4.1785">
        <ele>390</ele>
        <time>2026-03-19T15:30:10Z</time>
      </trkpt>
      <trkpt lat="45.96242" lon="4.1781">
        <ele>391</ele>
        <time>2026-03-19T15:30:21Z</time>
      </trkpt>
      <trkpt lat="45.96272" lon="4.17687">
        <ele>390</ele>
        <time>2026-03-19T15:30:42Z</time>
      </trkpt>
      <trkpt lat="45.96288" lon="4.17626">
        <ele>389</ele>
        <time>2026-03-19T15:30:52Z</time>
      </trkpt>
      <trkpt lat="45.96303" lon="4.17573">
        <ele>389</ele>
        <time>2026-03-19T15:31:02Z</time>
      </trkpt>
      <trkpt lat="45.96308" lon="4.17545">
        <ele>390</ele>
        <time>2026-03-19T15:31:06Z</time>
      </trkpt>
      <trkpt lat="45.96311" lon="4.17513">
        <ele>390</ele>
        <time>2026-03-19T15:31:12Z</time>
      </trkpt>
      <trkpt lat="45.96312" lon="4.17488">
        <ele>391</ele>
        <time>2026-03-19T15:31:16Z</time>
      </trkpt>
      <trkpt lat="45.96316" lon="4.17487">
        <ele>391</ele>
        <time>2026-03-19T15:31:17Z</time>
      </trkpt>
      <trkpt lat="45.96322" lon="4.17484">
        <ele>392</ele>
        <time>2026-03-19T15:31:18Z</time>
      </trkpt>
      <trkpt lat="45.96325" lon="4.17477">
        <ele>392</ele>
        <time>2026-03-19T15:31:19Z</time>
      </trkpt>
      <trkpt lat="45.96344" lon="4.17399">
        <ele>396</ele>
        <time>2026-03-19T15:31:33Z</time>
      </trkpt>
      <trkpt lat="45.96345" lon="4.17384">
        <ele>396</ele>
        <time>2026-03-19T15:31:35Z</time>
      </trkpt>
      <trkpt lat="45.96332" lon="4.17241">
        <ele>404</ele>
        <time>2026-03-19T15:31:59Z</time>
      </trkpt>
      <trkpt lat="45.96328" lon="4.17193">
        <ele>406</ele>
        <time>2026-03-19T15:32:06Z</time>
      </trkpt>
      <trkpt lat="45.96331" lon="4.17172">
        <ele>407</ele>
        <time>2026-03-19T15:32:10Z</time>
      </trkpt>
      <trkpt lat="45.96339" lon="4.17141">
        <ele>407</ele>
        <time>2026-03-19T15:32:15Z</time>
      </trkpt>
      <trkpt lat="45.96351" lon="4.17119">
        <ele>407</ele>
        <time>2026-03-19T15:32:20Z</time>
      </trkpt>
      <trkpt lat="45.96521" lon="4.1696">
        <ele>406</ele>
        <time>2026-03-19T15:33:07Z</time>
      </trkpt>
      <trkpt lat="45.96696" lon="4.16794">
        <ele>403</ele>
        <time>2026-03-19T15:33:56Z</time>
      </trkpt>
      <trkpt lat="45.96795" lon="4.16706">
        <ele>403</ele>
        <time>2026-03-19T15:34:23Z</time>
      </trkpt>
      <trkpt lat="45.96804" lon="4.16694">
        <ele>403</ele>
        <time>2026-03-19T15:34:26Z</time>
      </trkpt>
      <trkpt lat="45.96808" lon="4.1669">
        <ele>403</ele>
        <time>2026-03-19T15:34:27Z</time>
      </trkpt>
      <trkpt lat="45.96823" lon="4.16664">
        <ele>403</ele>
        <time>2026-03-19T15:34:33Z</time>
      </trkpt>
      <trkpt lat="45.96834" lon="4.16625">
        <ele>403</ele>
        <time>2026-03-19T15:34:40Z</time>
      </trkpt>
      <trkpt lat="45.96842" lon="4.16592">
        <ele>404</ele>
        <time>2026-03-19T15:34:45Z</time>
      </trkpt>
      <trkpt lat="45.96845" lon="4.16554">
        <ele>405</ele>
        <time>2026-03-19T15:34:52Z</time>
      </trkpt>
      <trkpt lat="45.96848" lon="4.16512">
        <ele>406</ele>
        <time>2026-03-19T15:34:58Z</time>
      </trkpt>
      <trkpt lat="45.96859" lon="4.16382">
        <ele>406</ele>
        <time>2026-03-19T15:35:20Z</time>
      </trkpt>
      <trkpt lat="45.96897" lon="4.1592">
        <ele>411</ele>
        <time>2026-03-19T15:36:35Z</time>
      </trkpt>
      <trkpt lat="45.96907" lon="4.15772">
        <ele>408</ele>
        <time>2026-03-19T15:36:59Z</time>
      </trkpt>
      <trkpt lat="45.9691" lon="4.15731">
        <ele>408</ele>
        <time>2026-03-19T15:37:06Z</time>
      </trkpt>
      <trkpt lat="45.96918" lon="4.15632">
        <ele>408</ele>
        <time>2026-03-19T15:37:22Z</time>
      </trkpt>
      <trkpt lat="45.96927" lon="4.15589">
        <ele>409</ele>
        <time>2026-03-19T15:37:29Z</time>
      </trkpt>
      <trkpt lat="45.96935" lon="4.15559">
        <ele>408</ele>
        <time>2026-03-19T15:37:35Z</time>
      </trkpt>
      <trkpt lat="45.96951" lon="4.15521">
        <ele>408</ele>
        <time>2026-03-19T15:37:42Z</time>
      </trkpt>
      <trkpt lat="45.96965" lon="4.15481">
        <ele>409</ele>
        <time>2026-03-19T15:37:49Z</time>
      </trkpt>
      <trkpt lat="45.96971" lon="4.15445">
        <ele>409</ele>
        <time>2026-03-19T15:37:55Z</time>
      </trkpt>
      <trkpt lat="45.9697" lon="4.15405">
        <ele>408</ele>
        <time>2026-03-19T15:38:02Z</time>
      </trkpt>
      <trkpt lat="45.96963" lon="4.15356">
        <ele>408</ele>
        <time>2026-03-19T15:38:10Z</time>
      </trkpt>
      <trkpt lat="45.96963" lon="4.15325">
        <ele>409</ele>
        <time>2026-03-19T15:38:15Z</time>
      </trkpt>
      <trkpt lat="45.96964" lon="4.15313">
        <ele>409</ele>
        <time>2026-03-19T15:38:17Z</time>
      </trkpt>
      <trkpt lat="45.96966" lon="4.1528">
        <ele>410</ele>
        <time>2026-03-19T15:38:22Z</time>
      </trkpt>
      <trkpt lat="45.96982" lon="4.15184">
        <ele>411</ele>
        <time>2026-03-19T15:38:38Z</time>
      </trkpt>
      <trkpt lat="45.96985" lon="4.15154">
        <ele>411</ele>
        <time>2026-03-19T15:38:43Z</time>
      </trkpt>
      <trkpt lat="45.96995" lon="4.15097">
        <ele>412</ele>
        <time>2026-03-19T15:38:53Z</time>
      </trkpt>
      <trkpt lat="45.97004" lon="4.15061">
        <ele>413</ele>
        <time>2026-03-19T15:38:59Z</time>
      </trkpt>
      <trkpt lat="45.97016" lon="4.15043">
        <ele>412</ele>
        <time>2026-03-19T15:39:03Z</time>
      </trkpt>
      <trkpt lat="45.97038" lon="4.15017">
        <ele>408</ele>
        <time>2026-03-19T15:39:10Z</time>
      </trkpt>
      <trkpt lat="45.97052" lon="4.14991">
        <ele>406</ele>
        <time>2026-03-19T15:39:15Z</time>
      </trkpt>
      <trkpt lat="45.97062" lon="4.14965">
        <ele>404</ele>
        <time>2026-03-19T15:39:20Z</time>
      </trkpt>
      <trkpt lat="45.97064" lon="4.14946">
        <ele>403</ele>
        <time>2026-03-19T15:39:23Z</time>
      </trkpt>
      <trkpt lat="45.97062" lon="4.1492">
        <ele>404</ele>
        <time>2026-03-19T15:39:27Z</time>
      </trkpt>
      <trkpt lat="45.97045" lon="4.14866">
        <ele>406</ele>
        <time>2026-03-19T15:39:37Z</time>
      </trkpt>
      <trkpt lat="45.97044" lon="4.14839">
        <ele>405</ele>
        <time>2026-03-19T15:39:41Z</time>
      </trkpt>
      <trkpt lat="45.97051" lon="4.14813">
        <ele>405</ele>
        <time>2026-03-19T15:39:46Z</time>
      </trkpt>
      <trkpt lat="45.97066" lon="4.14778">
        <ele>404</ele>
        <time>2026-03-19T15:39:52Z</time>
      </trkpt>
      <trkpt lat="45.97118" lon="4.14711">
        <ele>392</ele>
        <time>2026-03-19T15:40:09Z</time>
      </trkpt>
      <trkpt lat="45.97129" lon="4.14679">
        <ele>390</ele>
        <time>2026-03-19T15:40:14Z</time>
      </trkpt>
      <trkpt lat="45.97142" lon="4.14653">
        <ele>386</ele>
        <time>2026-03-19T15:40:20Z</time>
      </trkpt>
      <trkpt lat="45.97146" lon="4.14635">
        <ele>385</ele>
        <time>2026-03-19T15:40:23Z</time>
      </trkpt>
      <trkpt lat="45.97144" lon="4.14612">
        <ele>386</ele>
        <time>2026-03-19T15:40:26Z</time>
      </trkpt>
      <trkpt lat="45.97148" lon="4.14585">
        <ele>385</ele>
        <time>2026-03-19T15:40:31Z</time>
      </trkpt>
      <trkpt lat="45.97188" lon="4.14425">
        <ele>371</ele>
        <time>2026-03-19T15:40:58Z</time>
      </trkpt>
      <trkpt lat="45.9723" lon="4.14239">
        <ele>353</ele>
        <time>2026-03-19T15:41:30Z</time>
      </trkpt>
      <trkpt lat="45.97245" lon="4.14191">
        <ele>347</ele>
        <time>2026-03-19T15:41:39Z</time>
      </trkpt>
      <trkpt lat="45.97267" lon="4.14098">
        <ele>341</ele>
        <time>2026-03-19T15:41:55Z</time>
      </trkpt>
      <trkpt lat="45.97286" lon="4.13981">
        <ele>338</ele>
        <time>2026-03-19T15:42:14Z</time>
      </trkpt>
      <trkpt lat="45.97288" lon="4.13919">
        <ele>338</ele>
        <time>2026-03-19T15:42:24Z</time>
      </trkpt>
      <trkpt lat="45.97283" lon="4.13831">
        <ele>337</ele>
        <time>2026-03-19T15:42:39Z</time>
      </trkpt>
      <trkpt lat="45.9727" lon="4.13648">
        <ele>323</ele>
        <time>2026-03-19T15:43:08Z</time>
      </trkpt>
      <trkpt lat="45.9726" lon="4.13487">
        <ele>311</ele>
        <time>2026-03-19T15:43:35Z</time>
      </trkpt>
      <trkpt lat="45.97256" lon="4.13378">
        <ele>303</ele>
        <time>2026-03-19T15:43:52Z</time>
      </trkpt>
      <trkpt lat="45.97254" lon="4.13349">
        <ele>302</ele>
        <time>2026-03-19T15:43:57Z</time>
      </trkpt>
      <trkpt lat="45.97256" lon="4.1334">
        <ele>301</ele>
        <time>2026-03-19T15:43:59Z</time>
      </trkpt>
      <trkpt lat="45.9726" lon="4.13331">
        <ele>301</ele>
        <time>2026-03-19T15:44:00Z</time>
      </trkpt>
      <trkpt lat="45.97267" lon="4.13317">
        <ele>300</ele>
        <time>2026-03-19T15:44:03Z</time>
      </trkpt>
      <trkpt lat="45.97269" lon="4.1331">
        <ele>300</ele>
        <time>2026-03-19T15:44:04Z</time>
      </trkpt>
      <trkpt lat="45.97283" lon="4.13286">
        <ele>300</ele>
        <time>2026-03-19T15:44:10Z</time>
      </trkpt>
      <trkpt lat="45.97284" lon="4.13278">
        <ele>300</ele>
        <time>2026-03-19T15:44:11Z</time>
      </trkpt>
      <trkpt lat="45.97285" lon="4.13272">
        <ele>300</ele>
        <time>2026-03-19T15:44:12Z</time>
      </trkpt>
      <trkpt lat="45.97294" lon="4.13271">
        <ele>299</ele>
        <time>2026-03-19T15:44:14Z</time>
      </trkpt>
      <trkpt lat="45.97299" lon="4.13268">
        <ele>299</ele>
        <time>2026-03-19T15:44:15Z</time>
      </trkpt>
      <trkpt lat="45.97304" lon="4.13262">
        <ele>299</ele>
        <time>2026-03-19T15:44:17Z</time>
      </trkpt>
      <trkpt lat="45.97315" lon="4.13246">
        <ele>299</ele>
        <time>2026-03-19T15:44:20Z</time>
      </trkpt>
      <trkpt lat="45.97368" lon="4.13333">
        <ele>298</ele>
        <time>2026-03-19T15:44:39Z</time>
      </trkpt>
      <trkpt lat="45.97397" lon="4.13385">
        <ele>299</ele>
        <time>2026-03-19T15:44:50Z</time>
      </trkpt>
      <trkpt lat="45.97416" lon="4.13419">
        <ele>299</ele>
        <time>2026-03-19T15:44:57Z</time>
      </trkpt>
      <trkpt lat="45.97426" lon="4.13443">
        <ele>300</ele>
        <time>2026-03-19T15:45:02Z</time>
      </trkpt>
      <trkpt lat="45.97465" lon="4.13529">
        <ele>304</ele>
        <time>2026-03-19T15:45:18Z</time>
      </trkpt>
      <trkpt lat="45.97468" lon="4.1352">
        <ele>304</ele>
        <time>2026-03-19T15:45:20Z</time>
      </trkpt>
      <trkpt lat="45.97468" lon="4.13512">
        <ele>304</ele>
        <time>2026-03-19T15:45:21Z</time>
      </trkpt>
      <trkpt lat="45.97466" lon="4.13504">
        <ele>304</ele>
        <time>2026-03-19T15:45:23Z</time>
      </trkpt>
      <trkpt lat="45.97457" lon="4.13475">
        <ele>303</ele>
        <time>2026-03-19T15:45:28Z</time>
      </trkpt>
      <trkpt lat="45.97452" lon="4.13448">
        <ele>302</ele>
        <time>2026-03-19T15:45:32Z</time>
      </trkpt>
      <trkpt lat="45.97452" lon="4.13425">
        <ele>301</ele>
        <time>2026-03-19T15:45:36Z</time>
      </trkpt>
      <trkpt lat="45.97454" lon="4.13422">
        <ele>301</ele>
        <time>2026-03-19T15:45:37Z</time>
      </trkpt>
      <trkpt lat="45.97461" lon="4.13415">
        <ele>302</ele>
        <time>2026-03-19T15:45:39Z</time>
      </trkpt>
      <trkpt lat="45.97467" lon="4.13415">
        <ele>302</ele>
        <time>2026-03-19T15:45:40Z</time>
      </trkpt>
      <trkpt lat="45.97479" lon="4.13422">
        <ele>303</ele>
        <time>2026-03-19T15:45:43Z</time>
      </trkpt>
      <trkpt lat="45.97526" lon="4.13441">
        <ele>308</ele>
        <time>2026-03-19T15:45:55Z</time>
      </trkpt>
      <trkpt lat="45.97615" lon="4.13466">
        <ele>319</ele>
        <time>2026-03-19T15:46:16Z</time>
      </trkpt>
      <trkpt lat="45.97623" lon="4.13471">
        <ele>321</ele>
        <time>2026-03-19T15:46:18Z</time>
      </trkpt>
      <trkpt lat="45.97629" lon="4.13481">
        <ele>322</ele>
        <time>2026-03-19T15:46:20Z</time>
      </trkpt>
      <trkpt lat="45.97629" lon="4.1349">
        <ele>322</ele>
        <time>2026-03-19T15:46:21Z</time>
      </trkpt>
      <trkpt lat="45.97627" lon="4.13502">
        <ele>323</ele>
        <time>2026-03-19T15:46:23Z</time>
      </trkpt>
      <trkpt lat="45.9762" lon="4.13516">
        <ele>323</ele>
        <time>2026-03-19T15:46:26Z</time>
      </trkpt>
      <trkpt lat="45.97582" lon="4.13564">
        <ele>321</ele>
        <time>2026-03-19T15:46:38Z</time>
      </trkpt>
      <trkpt lat="45.97578" lon="4.13574">
        <ele>321</ele>
        <time>2026-03-19T15:46:40Z</time>
      </trkpt>
      <trkpt lat="45.97576" lon="4.13587">
        <ele>320</ele>
        <time>2026-03-19T15:46:42Z</time>
      </trkpt>
      <trkpt lat="45.97577" lon="4.13604">
        <ele>320</ele>
        <time>2026-03-19T15:46:45Z</time>
      </trkpt>
      <trkpt lat="45.9759" lon="4.13647">
        <ele>323</ele>
        <time>2026-03-19T15:46:52Z</time>
      </trkpt>
      <trkpt lat="45.97606" lon="4.13676">
        <ele>325</ele>
        <time>2026-03-19T15:46:58Z</time>
      </trkpt>
      <trkpt lat="45.97657" lon="4.13751">
        <ele>332</ele>
        <time>2026-03-19T15:47:15Z</time>
      </trkpt>
      <trkpt lat="45.97668" lon="4.13766">
        <ele>333</ele>
        <time>2026-03-19T15:47:19Z</time>
      </trkpt>
      <trkpt lat="45.97684" lon="4.13781">
        <ele>334</ele>
        <time>2026-03-19T15:47:23Z</time>
      </trkpt>
      <trkpt lat="45.97771" lon="4.13843">
        <ele>345</ele>
        <time>2026-03-19T15:47:46Z</time>
      </trkpt>
      <trkpt lat="45.9778" lon="4.13846">
        <ele>347</ele>
        <time>2026-03-19T15:47:48Z</time>
      </trkpt>
      <trkpt lat="45.97791" lon="4.13846">
        <ele>348</ele>
        <time>2026-03-19T15:47:51Z</time>
      </trkpt>
      <trkpt lat="45.97869" lon="4.13835">
        <ele>357</ele>
        <time>2026-03-19T15:48:09Z</time>
      </trkpt>
      <trkpt lat="45.9797" lon="4.13815">
        <ele>361</ele>
        <time>2026-03-19T15:48:33Z</time>
      </trkpt>
      <trkpt lat="45.97983" lon="4.1381">
        <ele>362</ele>
        <time>2026-03-19T15:48:36Z</time>
      </trkpt>
      <trkpt lat="45.97998" lon="4.13798">
        <ele>363</ele>
        <time>2026-03-19T15:48:40Z</time>
      </trkpt>
      <trkpt lat="45.98052" lon="4.13729">
        <ele>364</ele>
        <time>2026-03-19T15:48:57Z</time>
      </trkpt>
      <trkpt lat="45.98097" lon="4.13672">
        <ele>364</ele>
        <time>2026-03-19T15:49:11Z</time>
      </trkpt>
      <trkpt lat="45.98111" lon="4.13662">
        <ele>364</ele>
        <time>2026-03-19T15:49:15Z</time>
      </trkpt>
      <trkpt lat="45.98125" lon="4.13656">
        <ele>363</ele>
        <time>2026-03-19T15:49:18Z</time>
      </trkpt>
      <trkpt lat="45.98149" lon="4.13654">
        <ele>363</ele>
        <time>2026-03-19T15:49:24Z</time>
      </trkpt>
      <trkpt lat="45.98191" lon="4.13655">
        <ele>362</ele>
        <time>2026-03-19T15:49:33Z</time>
      </trkpt>
      <trkpt lat="45.98255" lon="4.13665">
        <ele>361</ele>
        <time>2026-03-19T15:49:48Z</time>
      </trkpt>
      <trkpt lat="45.98252" lon="4.13631">
        <ele>360</ele>
        <time>2026-03-19T15:49:54Z</time>
      </trkpt>
      <trkpt lat="45.98244" lon="4.13541">
        <ele>358</ele>
        <time>2026-03-19T15:50:09Z</time>
      </trkpt>
      <trkpt lat="45.9824" lon="4.13512">
        <ele>358</ele>
        <time>2026-03-19T15:50:14Z</time>
      </trkpt>
      <trkpt lat="45.98232" lon="4.13482">
        <ele>357</ele>
        <time>2026-03-19T15:50:19Z</time>
      </trkpt>
      <trkpt lat="45.98227" lon="4.13476">
        <ele>357</ele>
        <time>2026-03-19T15:50:20Z</time>
      </trkpt>
      <trkpt lat="45.98215" lon="4.13422">
        <ele>356</ele>
        <time>2026-03-19T15:50:29Z</time>
      </trkpt>
      <trkpt lat="45.98186" lon="4.13266">
        <ele>355</ele>
        <time>2026-03-19T15:50:56Z</time>
      </trkpt>
      <trkpt lat="45.98238" lon="4.13271">
        <ele>354</ele>
        <time>2026-03-19T15:51:08Z</time>
      </trkpt>
      <trkpt lat="45.9825" lon="4.13266">
        <ele>354</ele>
        <time>2026-03-19T15:51:11Z</time>
      </trkpt>
      <trkpt lat="45.98263" lon="4.13251">
        <ele>353</ele>
        <time>2026-03-19T15:51:15Z</time>
      </trkpt>
      <trkpt lat="45.98291" lon="4.1319">
        <ele>350</ele>
        <time>2026-03-19T15:51:26Z</time>
      </trkpt>
      <trkpt lat="45.98342" lon="4.13054">
        <ele>343</ele>
        <time>2026-03-19T15:51:52Z</time>
      </trkpt>
      <trkpt lat="45.98352" lon="4.13014">
        <ele>343</ele>
        <time>2026-03-19T15:51:58Z</time>
      </trkpt>
      <trkpt lat="45.98358" lon="4.12959">
        <ele>340</ele>
        <time>2026-03-19T15:52:08Z</time>
      </trkpt>
      <trkpt lat="45.98373" lon="4.12828">
        <ele>335</ele>
        <time>2026-03-19T15:52:29Z</time>
      </trkpt>
      <trkpt lat="45.98375" lon="4.12758">
        <ele>334</ele>
        <time>2026-03-19T15:52:40Z</time>
      </trkpt>
      <trkpt lat="45.98537" lon="4.12721">
        <ele>329</ele>
        <time>2026-03-19T15:53:19Z</time>
      </trkpt>
      <trkpt lat="45.98709" lon="4.12771">
        <ele>328</ele>
        <time>2026-03-19T15:54:00Z</time>
      </trkpt>
      <trkpt lat="45.98688" lon="4.12817">
        <ele>330</ele>
        <time>2026-03-19T15:54:09Z</time>
      </trkpt>
      <trkpt lat="45.98793" lon="4.13068">
        <ele>338</ele>
        <time>2026-03-19T15:54:56Z</time>
      </trkpt>
      <trkpt lat="45.98795" lon="4.13064">
        <ele>338</ele>
        <time>2026-03-19T15:54:57Z</time>
      </trkpt>
      <trkpt lat="45.98823" lon="4.1308">
        <ele>338</ele>
        <time>2026-03-19T15:55:04Z</time>
      </trkpt>
      <trkpt lat="45.98845" lon="4.1309">
        <ele>338</ele>
        <time>2026-03-19T15:55:09Z</time>
      </trkpt>
      <trkpt lat="45.98898" lon="4.13111">
        <ele>338</ele>
        <time>2026-03-19T15:55:22Z</time>
      </trkpt>
      <trkpt lat="45.98913" lon="4.13124">
        <ele>338</ele>
        <time>2026-03-19T15:55:26Z</time>
      </trkpt>
      <trkpt lat="45.98976" lon="4.13213">
        <ele>337</ele>
        <time>2026-03-19T15:55:47Z</time>
      </trkpt>
      <trkpt lat="45.98991" lon="4.13237">
        <ele>337</ele>
        <time>2026-03-19T15:55:52Z</time>
      </trkpt>
      <trkpt lat="45.99" lon="4.13268">
        <ele>337</ele>
        <time>2026-03-19T15:55:58Z</time>
      </trkpt>
      <trkpt lat="45.99072" lon="4.13306">
        <ele>337</ele>
        <time>2026-03-19T15:56:16Z</time>
      </trkpt>
      <trkpt lat="45.99147" lon="4.13342">
        <ele>334</ele>
        <time>2026-03-19T15:56:34Z</time>
      </trkpt>
      <trkpt lat="45.99181" lon="4.13354">
        <ele>333</ele>
        <time>2026-03-19T15:56:42Z</time>
      </trkpt>
      <trkpt lat="45.99218" lon="4.13367">
        <ele>332</ele>
        <time>2026-03-19T15:56:51Z</time>
      </trkpt>
      <trkpt lat="45.99228" lon="4.13368">
        <ele>332</ele>
        <time>2026-03-19T15:56:53Z</time>
      </trkpt>
      <trkpt lat="45.99296" lon="4.13363">
        <ele>326</ele>
        <time>2026-03-19T15:57:09Z</time>
      </trkpt>
      <trkpt lat="45.99308" lon="4.13362">
        <ele>324</ele>
        <time>2026-03-19T15:57:12Z</time>
      </trkpt>
      <trkpt lat="45.99317" lon="4.13354">
        <ele>323</ele>
        <time>2026-03-19T15:57:15Z</time>
      </trkpt>
      <trkpt lat="45.99324" lon="4.13344">
        <ele>322</ele>
        <time>2026-03-19T15:57:17Z</time>
      </trkpt>
      <trkpt lat="45.99321" lon="4.1343">
        <ele>323</ele>
        <time>2026-03-19T15:57:31Z</time>
      </trkpt>
      <trkpt lat="45.99315" lon="4.13464">
        <ele>325</ele>
        <time>2026-03-19T15:57:37Z</time>
      </trkpt>
      <trkpt lat="45.99301" lon="4.13487">
        <ele>327</ele>
        <time>2026-03-19T15:57:42Z</time>
      </trkpt>
      <trkpt lat="45.99281" lon="4.13501">
        <ele>329</ele>
        <time>2026-03-19T15:57:47Z</time>
      </trkpt>
      <trkpt lat="45.99279" lon="4.13502">
        <ele>329</ele>
        <time>2026-03-19T15:57:47Z</time>
      </trkpt>
      <trkpt lat="45.99276" lon="4.13569">
        <ele>330</ele>
        <time>2026-03-19T15:57:58Z</time>
      </trkpt>
      <trkpt lat="45.99275" lon="4.13649">
        <ele>332</ele>
        <time>2026-03-19T15:58:11Z</time>
      </trkpt>
      <trkpt lat="45.99265" lon="4.13726">
        <ele>334</ele>
        <time>2026-03-19T15:58:24Z</time>
      </trkpt>
      <trkpt lat="45.99266" lon="4.13738">
        <ele>334</ele>
        <time>2026-03-19T15:58:26Z</time>
      </trkpt>
      <trkpt lat="45.99272" lon="4.13772">
        <ele>335</ele>
        <time>2026-03-19T15:58:31Z</time>
      </trkpt>
      <trkpt lat="45.99274" lon="4.13787">
        <ele>335</ele>
        <time>2026-03-19T15:58:34Z</time>
      </trkpt>
      <trkpt lat="45.99286" lon="4.13893">
        <ele>336</ele>
        <time>2026-03-19T15:58:51Z</time>
      </trkpt>
      <trkpt lat="45.99286" lon="4.13903">
        <ele>336</ele>
        <time>2026-03-19T15:58:53Z</time>
      </trkpt>
      <trkpt lat="45.99282" lon="4.13931">
        <ele>337</ele>
        <time>2026-03-19T15:58:58Z</time>
      </trkpt>
      <trkpt lat="45.99274" lon="4.1397">
        <ele>339</ele>
        <time>2026-03-19T15:59:04Z</time>
      </trkpt>
      <trkpt lat="45.99274" lon="4.13988">
        <ele>339</ele>
        <time>2026-03-19T15:59:07Z</time>
      </trkpt>
      <trkpt lat="45.99276" lon="4.14012">
        <ele>340</ele>
        <time>2026-03-19T15:59:11Z</time>
      </trkpt>
      <trkpt lat="45.99273" lon="4.14034">
        <ele>342</ele>
        <time>2026-03-19T15:59:15Z</time>
      </trkpt>
      <trkpt lat="45.99241" lon="4.1414">
        <ele>346</ele>
        <time>2026-03-19T15:59:33Z</time>
      </trkpt>
      <trkpt lat="45.99234" lon="4.14158">
        <ele>347</ele>
        <time>2026-03-19T15:59:37Z</time>
      </trkpt>
      <trkpt lat="45.99231" lon="4.14168">
        <ele>348</ele>
        <time>2026-03-19T15:59:39Z</time>
      </trkpt>
      <trkpt lat="45.99228" lon="4.14203">
        <ele>348</ele>
        <time>2026-03-19T15:59:44Z</time>
      </trkpt>
      <trkpt lat="45.99221" lon="4.14226">
        <ele>349</ele>
        <time>2026-03-19T15:59:48Z</time>
      </trkpt>
      <trkpt lat="45.99182" lon="4.14338">
        <ele>352</ele>
        <time>2026-03-19T16:00:09Z</time>
      </trkpt>
      <trkpt lat="45.99101" lon="4.14582">
        <ele>360</ele>
        <time>2026-03-19T16:00:53Z</time>
      </trkpt>
      <trkpt lat="45.99073" lon="4.14658">
        <ele>364</ele>
        <time>2026-03-19T16:01:06Z</time>
      </trkpt>
      <trkpt lat="45.98991" lon="4.14704">
        <ele>369</ele>
        <time>2026-03-19T16:01:27Z</time>
      </trkpt>
      <trkpt lat="45.98962" lon="4.14724">
        <ele>371</ele>
        <time>2026-03-19T16:01:35Z</time>
      </trkpt>
      <trkpt lat="45.98953" lon="4.14737">
        <ele>372</ele>
        <time>2026-03-19T16:01:38Z</time>
      </trkpt>
      <trkpt lat="45.98918" lon="4.14795">
        <ele>376</ele>
        <time>2026-03-19T16:01:50Z</time>
      </trkpt>
      <trkpt lat="45.98892" lon="4.14836">
        <ele>378</ele>
        <time>2026-03-19T16:01:59Z</time>
      </trkpt>
      <trkpt lat="45.98869" lon="4.14869">
        <ele>378</ele>
        <time>2026-03-19T16:02:07Z</time>
      </trkpt>
      <trkpt lat="45.98843" lon="4.14902">
        <ele>379</ele>
        <time>2026-03-19T16:02:15Z</time>
      </trkpt>
      <trkpt lat="45.98821" lon="4.14933">
        <ele>379</ele>
        <time>2026-03-19T16:02:22Z</time>
      </trkpt>
      <trkpt lat="45.98805" lon="4.14958">
        <ele>378</ele>
        <time>2026-03-19T16:02:27Z</time>
      </trkpt>
      <trkpt lat="45.98786" lon="4.15">
        <ele>378</ele>
        <time>2026-03-19T16:02:36Z</time>
      </trkpt>
      <trkpt lat="45.98771" lon="4.1504">
        <ele>377</ele>
        <time>2026-03-19T16:02:43Z</time>
      </trkpt>
      <trkpt lat="45.98739" lon="4.15113">
        <ele>375</ele>
        <time>2026-03-19T16:02:57Z</time>
      </trkpt>
      <trkpt lat="45.98719" lon="4.15158">
        <ele>373</ele>
        <time>2026-03-19T16:03:06Z</time>
      </trkpt>
      <trkpt lat="45.98646" lon="4.15317">
        <ele>368</ele>
        <time>2026-03-19T16:03:36Z</time>
      </trkpt>
      <trkpt lat="45.98628" lon="4.15362">
        <ele>367</ele>
        <time>2026-03-19T16:03:45Z</time>
      </trkpt>
      <trkpt lat="45.98623" lon="4.15385">
        <ele>366</ele>
        <time>2026-03-19T16:03:49Z</time>
      </trkpt>
      <trkpt lat="45.98621" lon="4.15426">
        <ele>364</ele>
        <time>2026-03-19T16:03:56Z</time>
      </trkpt>
      <trkpt lat="45.98621" lon="4.15466">
        <ele>363</ele>
        <time>2026-03-19T16:04:02Z</time>
      </trkpt>
      <trkpt lat="45.98617" lon="4.15528">
        <ele>362</ele>
        <time>2026-03-19T16:04:12Z</time>
      </trkpt>
      <trkpt lat="45.98605" lon="4.15636">
        <ele>358</ele>
        <time>2026-03-19T16:04:30Z</time>
      </trkpt>
      <trkpt lat="45.98601" lon="4.15659">
        <ele>357</ele>
        <time>2026-03-19T16:04:34Z</time>
      </trkpt>
      <trkpt lat="45.98583" lon="4.15721">
        <ele>355</ele>
        <time>2026-03-19T16:04:45Z</time>
      </trkpt>
      <trkpt lat="45.98561" lon="4.15788">
        <ele>351</ele>
        <time>2026-03-19T16:04:57Z</time>
      </trkpt>
      <trkpt lat="45.98525" lon="4.15911">
        <ele>343</ele>
        <time>2026-03-19T16:05:18Z</time>
      </trkpt>
      <trkpt lat="45.98517" lon="4.15919">
        <ele>342</ele>
        <time>2026-03-19T16:05:21Z</time>
      </trkpt>
      <trkpt lat="45.98503" lon="4.1593">
        <ele>341</ele>
        <time>2026-03-19T16:05:24Z</time>
      </trkpt>
      <trkpt lat="45.98479" lon="4.15952">
        <ele>342</ele>
        <time>2026-03-19T16:05:31Z</time>
      </trkpt>
      <trkpt lat="45.98456" lon="4.15975">
        <ele>343</ele>
        <time>2026-03-19T16:05:37Z</time>
      </trkpt>
      <trkpt lat="45.98443" lon="4.15987">
        <ele>343</ele>
        <time>2026-03-19T16:05:41Z</time>
      </trkpt>
      <trkpt lat="45.98365" lon="4.16041">
        <ele>347</ele>
        <time>2026-03-19T16:06:01Z</time>
      </trkpt>
      <trkpt lat="45.98351" lon="4.16049">
        <ele>348</ele>
        <time>2026-03-19T16:06:05Z</time>
      </trkpt>
      <trkpt lat="45.9833" lon="4.16058">
        <ele>348</ele>
        <time>2026-03-19T16:06:10Z</time>
      </trkpt>
      <trkpt lat="45.98299" lon="4.16069">
        <ele>349</ele>
        <time>2026-03-19T16:06:17Z</time>
      </trkpt>
      <trkpt lat="45.9827" lon="4.16077">
        <ele>350</ele>
        <time>2026-03-19T16:06:24Z</time>
      </trkpt>
      <trkpt lat="45.98219" lon="4.16084">
        <ele>350</ele>
        <time>2026-03-19T16:06:36Z</time>
      </trkpt>
      <trkpt lat="45.982" lon="4.1609">
        <ele>350</ele>
        <time>2026-03-19T16:06:41Z</time>
      </trkpt>
      <trkpt lat="45.98163" lon="4.16103">
        <ele>352</ele>
        <time>2026-03-19T16:06:50Z</time>
      </trkpt>
      <trkpt lat="45.98151" lon="4.16104">
        <ele>352</ele>
        <time>2026-03-19T16:06:52Z</time>
      </trkpt>
      <trkpt lat="45.9814" lon="4.16103">
        <ele>351</ele>
        <time>2026-03-19T16:06:55Z</time>
      </trkpt>
      <trkpt lat="45.98121" lon="4.16098">
        <ele>351</ele>
        <time>2026-03-19T16:07:00Z</time>
      </trkpt>
      <trkpt lat="45.98112" lon="4.16097">
        <ele>350</ele>
        <time>2026-03-19T16:07:02Z</time>
      </trkpt>
      <trkpt lat="45.98106" lon="4.16099">
        <ele>350</ele>
        <time>2026-03-19T16:07:03Z</time>
      </trkpt>
      <trkpt lat="45.98104" lon="4.16101">
        <ele>351</ele>
        <time>2026-03-19T16:07:04Z</time>
      </trkpt>
      <trkpt lat="45.98102" lon="4.16105">
        <ele>351</ele>
        <time>2026-03-19T16:07:04Z</time>
      </trkpt>
      <trkpt lat="45.98128" lon="4.16136">
        <ele>354</ele>
        <time>2026-03-19T16:07:12Z</time>
      </trkpt>
      <trkpt lat="45.98215" lon="4.16225">
        <ele>359</ele>
        <time>2026-03-19T16:07:37Z</time>
      </trkpt>
      <trkpt lat="45.98251" lon="4.16279">
        <ele>361</ele>
        <time>2026-03-19T16:07:49Z</time>
      </trkpt>
      <trkpt lat="45.98269" lon="4.16328">
        <ele>362</ele>
        <time>2026-03-19T16:07:58Z</time>
      </trkpt>
      <trkpt lat="45.98278" lon="4.1636">
        <ele>362</ele>
        <time>2026-03-19T16:08:04Z</time>
      </trkpt>
      <trkpt lat="45.98285" lon="4.16375">
        <ele>362</ele>
        <time>2026-03-19T16:08:07Z</time>
      </trkpt>
      <trkpt lat="45.98294" lon="4.16385">
        <ele>362</ele>
        <time>2026-03-19T16:08:10Z</time>
      </trkpt>
      <trkpt lat="45.98476" lon="4.16408">
        <ele>364</ele>
        <time>2026-03-19T16:08:52Z</time>
      </trkpt>
      <trkpt lat="45.98485" lon="4.16412">
        <ele>364</ele>
        <time>2026-03-19T16:08:54Z</time>
      </trkpt>
      <trkpt lat="45.9849" lon="4.16427">
        <ele>365</ele>
        <time>2026-03-19T16:08:57Z</time>
      </trkpt>
      <trkpt lat="45.98501" lon="4.1647">
        <ele>365</ele>
        <time>2026-03-19T16:09:05Z</time>
      </trkpt>
      <trkpt lat="45.98507" lon="4.16468">
        <ele>365</ele>
        <time>2026-03-19T16:09:06Z</time>
      </trkpt>
      <trkpt lat="45.98522" lon="4.16471">
        <ele>365</ele>
        <time>2026-03-19T16:09:10Z</time>
      </trkpt>
      <trkpt lat="45.98555" lon="4.1648">
        <ele>366</ele>
        <time>2026-03-19T16:09:17Z</time>
      </trkpt>
      <trkpt lat="45.98618" lon="4.16485">
        <ele>368</ele>
        <time>2026-03-19T16:09:32Z</time>
      </trkpt>
      <trkpt lat="45.98644" lon="4.16489">
        <ele>370</ele>
        <time>2026-03-19T16:09:38Z</time>
      </trkpt>
      <trkpt lat="45.98652" lon="4.16492">
        <ele>370</ele>
        <time>2026-03-19T16:09:40Z</time>
      </trkpt>
      <trkpt lat="45.98687" lon="4.16508">
        <ele>372</ele>
        <time>2026-03-19T16:09:49Z</time>
      </trkpt>
      <trkpt lat="45.98736" lon="4.16536">
        <ele>374</ele>
        <time>2026-03-19T16:10:01Z</time>
      </trkpt>
      <trkpt lat="45.98768" lon="4.16563">
        <ele>376</ele>
        <time>2026-03-19T16:10:10Z</time>
      </trkpt>
      <trkpt lat="45.98837" lon="4.16615">
        <ele>381</ele>
        <time>2026-03-19T16:10:28Z</time>
      </trkpt>
      <trkpt lat="45.98853" lon="4.1663">
        <ele>382</ele>
        <time>2026-03-19T16:10:32Z</time>
      </trkpt>
      <trkpt lat="45.98865" lon="4.16638">
        <ele>383</ele>
        <time>2026-03-19T16:10:35Z</time>
      </trkpt>
      <trkpt lat="45.9889" lon="4.16643">
        <ele>385</ele>
        <time>2026-03-19T16:10:41Z</time>
      </trkpt>
      <trkpt lat="45.99008" lon="4.1667">
        <ele>394</ele>
        <time>2026-03-19T16:11:09Z</time>
      </trkpt>
      <trkpt lat="45.99028" lon="4.16678">
        <ele>395</ele>
        <time>2026-03-19T16:11:14Z</time>
      </trkpt>
      <trkpt lat="45.99067" lon="4.16699">
        <ele>399</ele>
        <time>2026-03-19T16:11:24Z</time>
      </trkpt>
      <trkpt lat="45.99109" lon="4.16728">
        <ele>403</ele>
        <time>2026-03-19T16:11:35Z</time>
      </trkpt>
      <trkpt lat="45.99134" lon="4.1675">
        <ele>405</ele>
        <time>2026-03-19T16:11:42Z</time>
      </trkpt>
      <trkpt lat="45.99139" lon="4.16756">
        <ele>406</ele>
        <time>2026-03-19T16:11:43Z</time>
      </trkpt>
      <trkpt lat="45.99151" lon="4.16774">
        <ele>406</ele>
        <time>2026-03-19T16:11:47Z</time>
      </trkpt>
      <trkpt lat="45.99172" lon="4.16798">
        <ele>408</ele>
        <time>2026-03-19T16:11:53Z</time>
      </trkpt>
      <trkpt lat="45.99195" lon="4.16823">
        <ele>408</ele>
        <time>2026-03-19T16:12:00Z</time>
      </trkpt>
      <trkpt lat="45.99218" lon="4.16858">
        <ele>408</ele>
        <time>2026-03-19T16:12:08Z</time>
      </trkpt>
      <trkpt lat="45.99251" lon="4.16898">
        <ele>409</ele>
        <time>2026-03-19T16:12:18Z</time>
      </trkpt>
      <trkpt lat="45.99254" lon="4.169">
        <ele>409</ele>
        <time>2026-03-19T16:12:19Z</time>
      </trkpt>
      <trkpt lat="45.99258" lon="4.16951">
        <ele>410</ele>
        <time>2026-03-19T16:12:27Z</time>
      </trkpt>
      <trkpt lat="45.9926" lon="4.16965">
        <ele>410</ele>
        <time>2026-03-19T16:12:29Z</time>
      </trkpt>
      <trkpt lat="45.99271" lon="4.16976">
        <ele>411</ele>
        <time>2026-03-19T16:12:33Z</time>
      </trkpt>
      <trkpt lat="45.9932" lon="4.17028">
        <ele>411</ele>
        <time>2026-03-19T16:12:47Z</time>
      </trkpt>
      <trkpt lat="45.99408" lon="4.17178">
        <ele>416</ele>
        <time>2026-03-19T16:13:19Z</time>
      </trkpt>
      <trkpt lat="45.99436" lon="4.17227">
        <ele>417</ele>
        <time>2026-03-19T16:13:29Z</time>
      </trkpt>
      <trkpt lat="45.99445" lon="4.17238">
        <ele>418</ele>
        <time>2026-03-19T16:13:32Z</time>
      </trkpt>
      <trkpt lat="45.9947" lon="4.17264">
        <ele>421</ele>
        <time>2026-03-19T16:13:39Z</time>
      </trkpt>
      <trkpt lat="45.99508" lon="4.17303">
        <ele>425</ele>
        <time>2026-03-19T16:13:50Z</time>
      </trkpt>
      <trkpt lat="45.99528" lon="4.17324">
        <ele>426</ele>
        <time>2026-03-19T16:13:56Z</time>
      </trkpt>
      <trkpt lat="45.99536" lon="4.17324">
        <ele>427</ele>
        <time>2026-03-19T16:13:57Z</time>
      </trkpt>
      <trkpt lat="45.99543" lon="4.17342">
        <ele>427</ele>
        <time>2026-03-19T16:14:01Z</time>
      </trkpt>
      <trkpt lat="45.99554" lon="4.17374">
        <ele>427</ele>
        <time>2026-03-19T16:14:07Z</time>
      </trkpt>
      <trkpt lat="45.99575" lon="4.17434">
        <ele>427</ele>
        <time>2026-03-19T16:14:17Z</time>
      </trkpt>
      <trkpt lat="45.99584" lon="4.17451">
        <ele>428</ele>
        <time>2026-03-19T16:14:21Z</time>
      </trkpt>
      <trkpt lat="45.99595" lon="4.17464">
        <ele>428</ele>
        <time>2026-03-19T16:14:24Z</time>
      </trkpt>
      <trkpt lat="45.99598" lon="4.17466">
        <ele>428</ele>
        <time>2026-03-19T16:14:25Z</time>
      </trkpt>
      <trkpt lat="45.99608" lon="4.17473">
        <ele>429</ele>
        <time>2026-03-19T16:14:28Z</time>
      </trkpt>
      <trkpt lat="45.9972" lon="4.1753">
        <ele>435</ele>
        <time>2026-03-19T16:14:55Z</time>
      </trkpt>
      <trkpt lat="45.99792" lon="4.17569">
        <ele>436</ele>
        <time>2026-03-19T16:15:13Z</time>
      </trkpt>
      <trkpt lat="45.99799" lon="4.1757">
        <ele>436</ele>
        <time>2026-03-19T16:15:15Z</time>
      </trkpt>
      <trkpt lat="45.99804" lon="4.17569">
        <ele>436</ele>
        <time>2026-03-19T16:15:16Z</time>
      </trkpt>
      <trkpt lat="45.99804" lon="4.17571">
        <ele>436</ele>
        <time>2026-03-19T16:15:17Z</time>
      </trkpt>
      <trkpt lat="45.99808" lon="4.17575">
        <ele>436</ele>
        <time>2026-03-19T16:15:18Z</time>
      </trkpt>
      <trkpt lat="45.99811" lon="4.17575">
        <ele>436</ele>
        <time>2026-03-19T16:15:18Z</time>
      </trkpt>
      <trkpt lat="45.99814" lon="4.17571">
        <ele>436</ele>
        <time>2026-03-19T16:15:19Z</time>
      </trkpt>
      <trkpt lat="45.99821" lon="4.17589">
        <ele>436</ele>
        <time>2026-03-19T16:15:23Z</time>
      </trkpt>
      <trkpt lat="45.99844" lon="4.17653">
        <ele>437</ele>
        <time>2026-03-19T16:15:34Z</time>
      </trkpt>
      <trkpt lat="45.99855" lon="4.1769">
        <ele>438</ele>
        <time>2026-03-19T16:15:41Z</time>
      </trkpt>
      <trkpt lat="45.99875" lon="4.17673">
        <ele>437</ele>
        <time>2026-03-19T16:15:46Z</time>
      </trkpt>
      <trkpt lat="45.9985" lon="4.1761">
        <ele>436</ele>
        <time>2026-03-19T16:15:58Z</time>
      </trkpt>
      <trkpt lat="45.99837" lon="4.17601">
        <ele>436</ele>
        <time>2026-03-19T16:16:01Z</time>
      </trkpt>
    </trkseg>
  </trk>
</gpx>